Time,TemperatureF,DewpointF,PressureIn,WindDirection,WindDirectionDegrees,WindSpeedMPH,WindSpeedGustMPH,Humidity,HourlyPrecipIn,Conditions,Clouds,dailyrainin,SoftwareType,DateUTC
2013-04-25 00:00:00,59.0,59.0,30.15,North,359,0.0,22.9,100,0.01,,SKC,0.01,VWS V14.01,2013-04-25 04:00:00,
2013-04-25 00:04:00,59.0,59.0,30.15,North,359,0.0,22.9,100,0.01,,SKC,0.01,VWS V14.01,2013-04-25 04:04:00,
2013-04-25 00:05:00,59.0,59.0,30.15,North,359,0.0,22.9,100,0.01,,SKC,0.01,VWS V14.01,2013-04-25 04:05:00,
2013-04-25 00:09:00,58.9,58.9,30.15,North,359,0.0,22.9,100,0.01,,SKC,0.01,VWS V14.01,2013-04-25 04:09:00,
2013-04-25 00:10:00,58.9,58.9,30.15,North,359,0.0,22.9,100,0.01,,SKC,0.01,VWS V14.01,2013-04-25 04:10:00,
2013-04-25 00:14:00,58.9,58.9,30.15,North,359,0.0,22.9,100,0.01,,SKC,0.01,VWS V14.01,2013-04-25 04:14:00,
2013-04-25 00:15:00,58.9,58.9,30.15,North,359,0.0,22.9,100,0.01,,SKC,0.01,VWS V14.01,2013-04-25 04:15:00,
2013-04-25 00:16:00,58.9,58.9,30.15,North,359,0.0,22.9,100,0.01,,SKC,0.01,VWS V14.01,2013-04-25 04:16:00,
2013-04-25 00:19:00,58.9,58.9,30.15,North,359,0.0,22.9,100,0.01,,SKC,0.01,VWS V14.01,2013-04-25 04:19:00,
2013-04-25 00:20:00,58.9,58.9,30.15,North,359,0.0,22.9,100,0.01,,SKC,0.01,VWS V14.01,2013-04-25 04:20:00,
2013-04-25 00:21:00,58.9,58.9,30.16,North,359,0.0,22.9,100,0.01,,SKC,0.01,VWS V14.01,2013-04-25 04:21:00,
2013-04-25 00:24:00,58.7,58.7,30.16,North,359,0.0,22.9,100,0.01,,SKC,0.01,VWS V14.01,2013-04-25 04:24:00,
2013-04-25 00:25:00,58.8,58.8,30.16,North,359,0.0,22.9,100,0.01,,SKC,0.01,VWS V14.01,2013-04-25 04:25:00,
2013-04-25 00:26:00,58.7,58.8,30.16,North,359,0.0,22.9,100,0.01,,SKC,0.01,VWS V14.01,2013-04-25 04:26:00,
2013-04-25 00:29:00,58.8,58.7,30.16,North,359,0.0,22.9,100,0.01,,SKC,0.01,VWS V14.01,2013-04-25 04:29:00,
2013-04-25 00:30:00,58.7,58.7,30.16,North,359,0.0,22.9,100,0.01,,SKC,0.01,VWS V14.01,2013-04-25 04:30:00,
2013-04-25 00:31:00,58.7,58.7,30.16,North,359,0.0,22.9,100,0.01,,SKC,0.01,VWS V14.01,2013-04-25 04:31:00,
2013-04-25 00:34:00,58.6,58.7,30.16,North,359,0.0,22.9,100,0.01,,SKC,0.01,VWS V14.01,2013-04-25 04:34:00,
2013-04-25 00:35:00,58.6,58.6,30.16,North,359,0.0,22.9,100,0.01,,SKC,0.01,VWS V14.01,2013-04-25 04:35:00,
2013-04-25 00:36:00,58.7,58.7,30.16,North,359,0.0,22.9,100,0.01,,SKC,0.01,VWS V14.01,2013-04-25 04:36:00,
2013-04-25 00:39:00,58.6,58.6,30.17,North,359,0.0,22.9,100,0.01,,SKC,0.01,VWS V14.01,2013-04-25 04:39:00,
2013-04-25 00:40:00,58.5,58.5,30.17,North,359,0.0,22.9,100,0.01,,SKC,0.01,VWS V14.01,2013-04-25 04:40:00,
2013-04-25 00:41:00,58.4,58.4,30.16,North,359,0.0,22.9,100,0.01,,SKC,0.01,VWS V14.01,2013-04-25 04:41:00,
2013-04-25 00:44:00,58.2,58.2,30.17,North,359,0.0,22.9,100,0.01,,SKC,0.01,VWS V14.01,2013-04-25 04:44:00,
2013-04-25 00:45:00,58.2,58.2,30.17,North,359,0.0,22.9,100,0.01,,SKC,0.01,VWS V14.01,2013-04-25 04:45:00,
2013-04-25 00:46:00,58.1,58.1,30.16,North,359,0.0,22.9,100,0.01,,SKC,0.01,VWS V14.01,2013-04-25 04:46:00,
2013-04-25 00:49:00,58.1,58.1,30.16,North,359,0.0,22.9,100,0.01,,SKC,0.01,VWS V14.01,2013-04-25 04:49:00,
2013-04-25 00:50:00,58.1,58.1,30.16,North,359,0.0,22.9,100,0.01,,SKC,0.01,VWS V14.01,2013-04-25 04:50:00,
2013-04-25 00:51:00,58.1,58.1,30.16,North,359,0.0,22.9,100,0.01,,SKC,0.01,VWS V14.01,2013-04-25 04:51:00,
2013-04-25 00:55:00,58.0,58.0,30.16,North,359,0.0,22.9,100,0.01,,SKC,0.01,VWS V14.01,2013-04-25 04:55:00,
2013-04-25 00:56:00,58.0,58.0,30.16,North,359,0.0,22.9,100,0.01,,SKC,0.01,VWS V14.01,2013-04-25 04:56:00,
2013-04-25 00:57:00,58.0,57.9,30.16,North,359,0.0,22.9,100,0.01,,SKC,0.01,VWS V14.01,2013-04-25 04:57:00,
2013-04-25 01:00:00,57.9,57.9,30.17,North,359,0.0,0.0,100,0.00,,SKC,0.01,VWS V14.01,2013-04-25 05:00:00,
2013-04-25 01:01:00,57.9,57.9,30.17,North,359,0.0,0.0,100,0.00,,SKC,0.01,VWS V14.01,2013-04-25 05:01:00,
2013-04-25 01:02:00,58.0,58.0,30.17,North,359,0.0,0.0,100,0.00,,SKC,0.01,VWS V14.01,2013-04-25 05:02:00,
2013-04-25 01:03:00,56.6,56.6,30.16,North,359,0.0,0.0,100,0.00,,SKC,0.00,VWS V14.01,2013-04-25 05:03:00,
2013-04-25 01:04:00,56.5,56.5,30.16,North,359,0.0,0.0,100,0.00,,SKC,0.00,VWS V14.01,2013-04-25 05:04:00,
2013-04-25 01:05:00,58.0,58.0,30.17,North,359,0.0,0.0,100,0.00,,SKC,0.01,VWS V14.01,2013-04-25 05:05:00,
2013-04-25 01:06:00,57.9,57.9,30.17,North,359,0.0,0.0,100,0.00,,SKC,0.01,VWS V14.01,2013-04-25 05:06:00,
2013-04-25 01:07:00,57.8,57.8,30.17,North,359,0.0,0.0,100,0.00,,SKC,0.01,VWS V14.01,2013-04-25 05:07:00,
2013-04-25 01:10:00,57.6,57.6,30.17,North,359,0.0,0.0,100,0.00,,SKC,0.01,VWS V14.01,2013-04-25 05:10:00,
2013-04-25 01:11:00,57.6,57.6,30.17,North,359,0.0,0.0,100,0.00,,SKC,0.01,VWS V14.01,2013-04-25 05:11:00,
2013-04-25 01:12:00,57.4,57.4,30.17,North,359,0.0,0.0,100,0.00,,SKC,0.01,VWS V14.01,2013-04-25 05:12:00,
2013-04-25 01:16:00,57.4,57.4,30.17,North,359,0.0,0.0,100,0.00,,SKC,0.01,VWS V14.01,2013-04-25 05:16:00,
2013-04-25 01:17:00,57.3,57.3,30.17,North,359,0.0,0.0,100,0.00,,SKC,0.01,VWS V14.01,2013-04-25 05:17:00,
2013-04-25 01:21:00,57.4,57.4,30.17,North,359,0.0,0.0,100,0.00,,SKC,0.01,VWS V14.01,2013-04-25 05:21:00,
2013-04-25 01:22:00,57.4,57.4,30.17,North,359,0.0,0.0,100,0.00,,SKC,0.01,VWS V14.01,2013-04-25 05:22:00,
2013-04-25 01:26:00,57.3,57.3,30.17,North,359,0.0,0.0,100,0.00,,SKC,0.01,VWS V14.01,2013-04-25 05:26:00,
2013-04-25 01:27:00,57.3,57.3,30.17,North,359,0.0,0.0,100,0.00,,SKC,0.01,VWS V14.01,2013-04-25 05:27:00,
2013-04-25 01:28:00,57.2,57.2,30.17,North,359,0.0,0.0,100,0.00,,SKC,0.01,VWS V14.01,2013-04-25 05:28:00,
2013-04-25 01:31:00,57.2,57.2,30.17,North,359,0.0,0.0,100,0.00,,SKC,0.01,VWS V14.01,2013-04-25 05:31:00,
2013-04-25 01:32:00,57.2,57.1,30.17,North,359,0.0,0.0,100,0.00,,SKC,0.01,VWS V14.01,2013-04-25 05:32:00,
2013-04-25 01:33:00,57.1,57.1,30.17,North,359,0.0,0.0,100,0.00,,SKC,0.01,VWS V14.01,2013-04-25 05:33:00,
2013-04-25 01:36:00,57.2,57.2,30.17,North,359,0.0,0.0,100,0.00,,SKC,0.01,VWS V14.01,2013-04-25 05:36:00,
2013-04-25 01:37:00,57.2,57.2,30.17,North,359,0.0,0.0,100,0.00,,SKC,0.01,VWS V14.01,2013-04-25 05:37:00,
2013-04-25 01:38:00,57.2,57.2,30.17,North,359,0.0,0.0,100,0.00,,SKC,0.01,VWS V14.01,2013-04-25 05:38:00,
2013-04-25 01:41:00,57.1,57.1,30.17,North,359,0.0,0.0,100,0.00,,SKC,0.01,VWS V14.01,2013-04-25 05:41:00,
2013-04-25 01:42:00,57.1,57.1,30.17,North,359,0.0,0.0,100,0.00,,SKC,0.01,VWS V14.01,2013-04-25 05:42:00,
2013-04-25 01:43:00,57.1,57.1,30.17,North,359,0.0,0.0,100,0.00,,SKC,0.01,VWS V14.01,2013-04-25 05:43:00,
2013-04-25 01:46:00,57.0,57.0,30.17,North,359,0.0,0.0,100,0.00,,SKC,0.01,VWS V14.01,2013-04-25 05:46:00,
2013-04-25 01:47:00,57.0,57.0,30.17,North,359,0.0,0.0,100,0.00,,SKC,0.01,VWS V14.01,2013-04-25 05:47:00,
2013-04-25 01:48:00,56.8,56.8,30.16,North,359,0.0,0.0,100,0.00,,SKC,0.01,VWS V14.01,2013-04-25 05:48:00,
2013-04-25 01:51:00,56.8,56.8,30.16,North,359,0.0,0.0,100,0.00,,SKC,0.01,VWS V14.01,2013-04-25 05:51:00,
2013-04-25 01:52:00,56.8,56.8,30.16,North,359,0.0,0.0,100,0.00,,SKC,0.01,VWS V14.01,2013-04-25 05:52:00,
2013-04-25 01:53:00,56.7,56.7,30.16,North,359,0.0,0.0,100,0.00,,SKC,0.01,VWS V14.01,2013-04-25 05:53:00,
2013-04-25 01:56:00,56.7,56.7,30.16,North,359,0.0,0.0,100,0.00,,SKC,0.01,VWS V14.01,2013-04-25 05:56:00,
2013-04-25 01:57:00,56.6,56.6,30.16,North,359,0.0,0.0,100,0.00,,SKC,0.01,VWS V14.01,2013-04-25 05:57:00,
2013-04-25 02:02:00,56.5,56.5,30.16,North,359,0.0,0.0,100,0.00,,SKC,0.00,VWS V14.01,2013-04-25 06:02:00,
2013-04-25 02:07:00,56.5,56.5,30.16,North,359,0.0,0.0,100,0.00,,SKC,0.00,VWS V14.01,2013-04-25 06:07:00,
2013-04-25 02:12:00,56.5,56.5,30.17,North,359,0.0,0.0,100,0.00,,SKC,0.00,VWS V14.01,2013-04-25 06:12:00,
2013-04-25 02:13:00,56.5,56.5,30.17,North,359,0.0,0.0,100,0.00,,SKC,0.00,VWS V14.01,2013-04-25 06:13:00,
2013-04-25 02:17:00,56.4,56.4,30.17,North,359,0.0,0.0,100,0.00,,SKC,0.00,VWS V14.01,2013-04-25 06:17:00,
2013-04-25 02:18:00,56.5,56.5,30.17,North,359,0.0,0.0,100,0.00,,SKC,0.00,VWS V14.01,2013-04-25 06:18:00,
2013-04-25 02:22:00,56.4,56.4,30.17,North,359,0.0,0.0,100,0.00,,SKC,0.00,VWS V14.01,2013-04-25 06:22:00,
2013-04-25 02:23:00,56.3,56.3,30.17,North,359,0.0,0.0,100,0.00,,SKC,0.00,VWS V14.01,2013-04-25 06:23:00,
2013-04-25 02:27:00,56.1,56.1,30.17,North,359,0.0,0.0,100,0.00,,SKC,0.00,VWS V14.01,2013-04-25 06:27:00,
2013-04-25 02:28:00,56.2,56.2,30.17,North,359,0.0,0.0,100,0.00,,SKC,0.00,VWS V14.01,2013-04-25 06:28:00,
2013-04-25 02:32:00,56.1,56.1,30.17,North,359,0.0,0.0,100,0.00,,SKC,0.00,VWS V14.01,2013-04-25 06:32:00,
2013-04-25 02:33:00,56.1,56.1,30.17,North,359,0.0,0.0,100,0.00,,SKC,0.00,VWS V14.01,2013-04-25 06:33:00,
2013-04-25 02:37:00,55.9,55.9,30.17,North,359,0.0,0.0,100,0.00,,SKC,0.00,VWS V14.01,2013-04-25 06:37:00,
2013-04-25 02:38:00,55.9,55.9,30.17,North,359,0.0,0.0,100,0.00,,SKC,0.00,VWS V14.01,2013-04-25 06:38:00,
2013-04-25 02:39:00,55.9,55.9,30.17,North,359,0.0,0.0,100,0.00,,SKC,0.00,VWS V14.01,2013-04-25 06:39:00,
2013-04-25 02:43:00,56.0,56.0,30.17,North,359,0.0,0.0,100,0.00,,SKC,0.00,VWS V14.01,2013-04-25 06:43:00,
2013-04-25 02:44:00,55.9,55.9,30.17,North,359,0.0,0.0,100,0.00,,SKC,0.00,VWS V14.01,2013-04-25 06:44:00,
2013-04-25 02:48:00,55.7,55.7,30.17,North,359,0.0,0.0,100,0.00,,SKC,0.00,VWS V14.01,2013-04-25 06:48:00,
2013-04-25 02:49:00,55.7,55.7,30.17,North,359,0.0,0.0,100,0.00,,SKC,0.00,VWS V14.01,2013-04-25 06:49:00,
2013-04-25 02:53:00,55.8,55.8,30.17,North,359,0.0,0.0,100,0.00,,SKC,0.00,VWS V14.01,2013-04-25 06:53:00,
2013-04-25 02:54:00,55.7,55.7,30.17,North,359,0.0,0.0,100,0.00,,SKC,0.00,VWS V14.01,2013-04-25 06:54:00,
2013-04-25 02:58:00,55.8,55.8,30.17,North,359,0.0,0.0,100,0.00,,SKC,0.00,VWS V14.01,2013-04-25 06:58:00,
2013-04-25 02:59:00,55.8,55.8,30.17,North,359,0.0,0.0,100,0.00,,SKC,0.00,VWS V14.01,2013-04-25 06:59:00,
2013-04-25 03:03:00,55.7,55.7,30.17,North,359,0.0,0.0,100,0.00,,SKC,0.00,VWS V14.01,2013-04-25 07:03:00,
2013-04-25 03:05:00,55.7,55.7,30.17,North,359,0.0,0.0,100,0.00,,SKC,0.00,VWS V14.01,2013-04-25 07:05:00,
2013-04-25 03:08:00,55.7,55.7,30.17,North,359,0.0,0.0,100,0.00,,SKC,0.00,VWS V14.01,2013-04-25 07:08:00,
2013-04-25 03:09:00,55.7,55.7,30.18,North,359,0.0,0.0,100,0.00,,SKC,0.00,VWS V14.01,2013-04-25 07:09:00,
2013-04-25 03:10:00,55.7,55.7,30.18,North,359,0.0,0.0,100,0.00,,SKC,0.00,VWS V14.01,2013-04-25 07:10:00,
2013-04-25 03:13:00,55.7,55.7,30.18,North,359,0.0,0.0,100,0.00,,SKC,0.00,VWS V14.01,2013-04-25 07:13:00,
2013-04-25 03:14:00,55.7,55.7,30.18,North,359,0.0,0.0,100,0.00,,SKC,0.00,VWS V14.01,2013-04-25 07:14:00,
2013-04-25 03:15:00,55.7,55.7,30.18,North,359,0.0,0.0,100,0.00,,SKC,0.00,VWS V14.01,2013-04-25 07:15:00,
2013-04-25 03:18:00,55.7,55.7,30.18,North,359,0.0,0.0,100,0.00,,SKC,0.00,VWS V14.01,2013-04-25 07:18:00,
2013-04-25 03:19:00,55.7,55.7,30.18,North,359,0.0,0.0,100,0.00,,SKC,0.00,VWS V14.01,2013-04-25 07:19:00,
2013-04-25 03:20:00,55.6,55.6,30.18,North,359,0.0,0.0,100,0.00,,SKC,0.00,VWS V14.01,2013-04-25 07:20:00,
2013-04-25 03:23:00,55.5,55.5,30.18,North,359,0.0,0.0,100,0.00,,SKC,0.00,VWS V14.01,2013-04-25 07:23:00,
2013-04-25 03:24:00,55.5,55.5,30.18,North,359,0.0,0.0,100,0.00,,SKC,0.00,VWS V14.01,2013-04-25 07:24:00,
2013-04-25 03:25:00,55.5,55.5,30.18,North,359,0.0,0.0,100,0.00,,SKC,0.00,VWS V14.01,2013-04-25 07:25:00,
2013-04-25 03:28:00,55.5,55.5,30.18,North,359,0.0,0.0,100,0.00,,SKC,0.00,VWS V14.01,2013-04-25 07:28:00,
2013-04-25 03:29:00,55.5,55.5,30.18,North,359,0.0,0.0,100,0.00,,SKC,0.00,VWS V14.01,2013-04-25 07:29:00,
2013-04-25 03:30:00,55.5,55.5,30.18,North,359,0.0,0.0,100,0.00,,SKC,0.00,VWS V14.01,2013-04-25 07:30:00,
2013-04-25 03:33:00,55.5,55.5,30.18,North,359,0.0,0.0,100,0.00,,SKC,0.00,VWS V14.01,2013-04-25 07:33:00,
2013-04-25 03:34:00,55.5,55.5,30.18,North,359,0.0,0.0,100,0.00,,SKC,0.00,VWS V14.01,2013-04-25 07:34:00,
2013-04-25 03:35:00,55.5,55.5,30.18,North,359,0.0,0.0,100,0.00,,SKC,0.00,VWS V14.01,2013-04-25 07:35:00,
2013-04-25 03:39:00,55.5,55.5,30.18,North,359,0.0,0.0,100,0.00,,SKC,0.00,VWS V14.01,2013-04-25 07:39:00,
2013-04-25 03:40:00,55.5,55.5,30.18,North,359,0.0,0.0,100,0.00,,SKC,0.00,VWS V14.01,2013-04-25 07:40:00,
2013-04-25 03:41:00,55.5,55.5,30.18,North,359,0.0,0.0,100,0.00,,SKC,0.00,VWS V14.01,2013-04-25 07:41:00,
2013-04-25 03:44:00,55.4,55.4,30.18,North,359,0.0,0.0,100,0.00,,SKC,0.00,VWS V14.01,2013-04-25 07:44:00,
2013-04-25 03:45:00,55.5,55.5,30.18,North,359,0.0,0.0,100,0.00,,SKC,0.00,VWS V14.01,2013-04-25 07:45:00,
2013-04-25 03:46:00,55.4,55.4,30.18,North,359,0.0,0.0,100,0.00,,SKC,0.00,VWS V14.01,2013-04-25 07:46:00,
2013-04-25 03:49:00,55.4,55.4,30.18,North,359,0.0,0.0,100,0.00,,SKC,0.00,VWS V14.01,2013-04-25 07:49:00,
2013-04-25 03:50:00,55.4,55.4,30.17,North,359,0.0,0.0,100,0.00,,SKC,0.00,VWS V14.01,2013-04-25 07:50:00,
2013-04-25 03:51:00,55.3,55.3,30.17,North,359,0.0,0.0,100,0.00,,SKC,0.00,VWS V14.01,2013-04-25 07:51:00,
2013-04-25 03:54:00,55.2,55.2,30.18,North,359,0.0,0.0,100,0.00,,SKC,0.00,VWS V14.01,2013-04-25 07:54:00,
2013-04-25 03:55:00,55.2,55.2,30.18,North,359,0.0,0.0,100,0.00,,SKC,0.00,VWS V14.01,2013-04-25 07:55:00,
2013-04-25 03:56:00,55.3,55.3,30.18,North,359,0.0,0.0,100,0.00,,SKC,0.00,VWS V14.01,2013-04-25 07:56:00,
2013-04-25 03:59:00,55.3,55.3,30.18,North,359,0.0,0.0,100,0.00,,SKC,0.00,VWS V14.01,2013-04-25 07:59:00,
2013-04-25 04:00:00,55.2,55.2,30.18,North,359,0.0,0.0,100,0.00,,SKC,0.00,VWS V14.01,2013-04-25 08:00:00,
2013-04-25 04:01:00,55.2,55.2,30.18,North,359,0.0,0.0,100,0.00,,SKC,0.00,VWS V14.01,2013-04-25 08:01:00,
2013-04-25 04:04:00,55.2,55.2,30.18,North,359,0.0,0.0,100,0.00,,SKC,0.00,VWS V14.01,2013-04-25 08:04:00,
2013-04-25 04:06:00,55.2,55.2,30.18,North,359,0.0,0.0,100,0.00,,SKC,0.00,VWS V14.01,2013-04-25 08:06:00,
2013-04-25 04:07:00,55.1,55.1,30.18,North,359,0.0,0.0,100,0.00,,SKC,0.00,VWS V14.01,2013-04-25 08:07:00,
2013-04-25 04:10:00,55.1,55.1,30.18,North,359,0.0,0.0,100,0.00,,SKC,0.00,VWS V14.01,2013-04-25 08:10:00,
2013-04-25 04:11:00,55.0,55.0,30.18,North,359,0.0,0.0,100,0.00,,SKC,0.00,VWS V14.01,2013-04-25 08:11:00,
2013-04-25 04:12:00,55.1,55.1,30.18,North,359,0.0,0.0,100,0.00,,SKC,0.00,VWS V14.01,2013-04-25 08:12:00,
2013-04-25 04:15:00,55.2,55.2,30.18,North,359,0.0,0.0,100,0.00,,SKC,0.00,VWS V14.01,2013-04-25 08:15:00,
2013-04-25 04:16:00,55.1,55.1,30.18,North,359,0.0,0.0,100,0.00,,SKC,0.00,VWS V14.01,2013-04-25 08:16:00,
2013-04-25 04:18:00,55.0,55.0,30.18,North,359,0.0,0.0,100,0.00,,SKC,0.00,VWS V14.01,2013-04-25 08:18:00,
2013-04-25 04:20:00,55.0,55.0,30.18,North,359,0.0,0.0,100,0.00,,SKC,0.00,VWS V14.01,2013-04-25 08:20:00,
2013-04-25 04:21:00,55.0,55.0,30.18,North,359,0.0,0.0,100,0.00,,SKC,0.00,VWS V14.01,2013-04-25 08:21:00,
2013-04-25 04:22:00,55.0,55.0,30.18,North,359,0.0,0.0,100,0.00,,SKC,0.00,VWS V14.01,2013-04-25 08:22:00,
2013-04-25 04:23:00,55.0,55.0,30.18,North,359,0.0,0.0,100,0.00,,SKC,0.00,VWS V14.01,2013-04-25 08:23:00,
2013-04-25 04:25:00,54.8,54.8,30.18,North,359,0.0,0.0,100,0.00,,SKC,0.00,VWS V14.01,2013-04-25 08:25:00,
2013-04-25 04:26:00,54.8,54.8,30.18,North,359,0.0,0.0,100,0.00,,SKC,0.00,VWS V14.01,2013-04-25 08:26:00,
2013-04-25 04:27:00,54.8,54.8,30.18,North,359,0.0,0.0,100,0.00,,SKC,0.00,VWS V14.01,2013-04-25 08:27:00,
2013-04-25 04:29:00,54.8,54.8,30.18,North,359,0.0,0.0,100,0.00,,SKC,0.00,VWS V14.01,2013-04-25 08:29:00,
2013-04-25 04:30:00,54.8,54.7,30.18,North,359,0.0,0.0,100,0.00,,SKC,0.00,VWS V14.01,2013-04-25 08:30:00,
2013-04-25 04:31:00,54.7,54.6,30.18,North,359,0.0,0.0,100,0.00,,SKC,0.00,VWS V14.01,2013-04-25 08:31:00,
2013-04-25 04:32:00,54.6,54.6,30.18,North,359,0.0,0.0,100,0.00,,SKC,0.00,VWS V14.01,2013-04-25 08:32:00,
2013-04-25 04:34:00,54.5,54.5,30.18,North,359,0.0,0.0,100,0.00,,SKC,0.00,VWS V14.01,2013-04-25 08:34:00,
2013-04-25 04:35:00,54.5,54.5,30.18,North,359,0.0,0.0,100,0.00,,SKC,0.00,VWS V14.01,2013-04-25 08:35:00,
2013-04-25 04:36:00,54.5,54.5,30.18,North,359,0.0,0.0,100,0.00,,SKC,0.00,VWS V14.01,2013-04-25 08:36:00,
2013-04-25 04:37:00,54.6,54.6,30.18,North,359,0.0,0.0,100,0.00,,SKC,0.00,VWS V14.01,2013-04-25 08:37:00,
2013-04-25 04:39:00,54.5,54.5,30.18,North,359,0.0,0.0,100,0.00,,SKC,0.00,VWS V14.01,2013-04-25 08:39:00,
2013-04-25 04:40:00,54.5,54.5,30.18,North,359,0.0,0.0,100,0.00,,SKC,0.00,VWS V14.01,2013-04-25 08:40:00,
2013-04-25 04:41:00,54.4,54.4,30.18,North,359,0.0,0.0,100,0.00,,SKC,0.00,VWS V14.01,2013-04-25 08:41:00,
2013-04-25 04:42:00,54.4,54.4,30.18,North,359,0.0,0.0,100,0.00,,SKC,0.00,VWS V14.01,2013-04-25 08:42:00,
2013-04-25 04:44:00,54.4,54.4,30.18,North,359,0.0,0.0,100,0.00,,SKC,0.00,VWS V14.01,2013-04-25 08:44:00,
2013-04-25 04:45:00,54.4,54.4,30.18,North,359,0.0,0.0,100,0.00,,SKC,0.00,VWS V14.01,2013-04-25 08:45:00,
2013-04-25 04:46:00,54.3,54.3,30.18,North,359,0.0,0.0,100,0.00,,SKC,0.00,VWS V14.01,2013-04-25 08:46:00,
2013-04-25 04:47:00,54.3,54.3,30.18,North,359,0.0,0.0,100,0.00,,SKC,0.00,VWS V14.01,2013-04-25 08:47:00,
2013-04-25 04:48:00,54.3,54.3,30.18,North,359,0.0,0.0,100,0.00,,SKC,0.00,VWS V14.01,2013-04-25 08:48:00,
2013-04-25 04:49:00,54.3,54.3,30.18,North,359,0.0,0.0,100,0.00,,SKC,0.00,VWS V14.01,2013-04-25 08:49:00,
2013-04-25 04:51:00,54.3,54.3,30.18,North,359,0.0,0.0,100,0.00,,SKC,0.00,VWS V14.01,2013-04-25 08:51:00,
2013-04-25 04:52:00,54.4,54.4,30.18,North,359,0.0,0.0,100,0.00,,SKC,0.00,VWS V14.01,2013-04-25 08:52:00,
2013-04-25 04:53:00,54.3,54.3,30.18,North,359,0.0,0.0,100,0.00,,SKC,0.00,VWS V14.01,2013-04-25 08:53:00,
2013-04-25 04:54:00,54.3,54.3,30.18,North,359,0.0,0.0,100,0.00,,SKC,0.00,VWS V14.01,2013-04-25 08:54:00,
2013-04-25 04:56:00,54.3,54.3,30.19,North,359,0.0,0.0,100,0.00,,SKC,0.00,VWS V14.01,2013-04-25 08:56:00,
2013-04-25 04:57:00,54.4,54.4,30.19,North,359,0.0,0.0,100,0.00,,SKC,0.00,VWS V14.01,2013-04-25 08:57:00,
2013-04-25 04:58:00,54.4,54.4,30.19,North,359,0.0,0.0,100,0.00,,SKC,0.00,VWS V14.01,2013-04-25 08:58:00,
2013-04-25 04:59:00,54.4,54.4,30.19,North,359,0.0,0.0,100,0.00,,SKC,0.00,VWS V14.01,2013-04-25 08:59:00,
2013-04-25 05:01:00,54.5,54.5,30.19,North,359,0.0,0.0,100,0.00,,SKC,0.00,VWS V14.01,2013-04-25 09:01:00,
2013-04-25 05:02:00,54.5,54.4,30.19,North,359,0.0,0.0,100,0.00,,SKC,0.00,VWS V14.01,2013-04-25 09:02:00,
2013-04-25 05:03:00,54.5,54.5,30.19,North,359,0.0,0.0,100,0.00,,SKC,0.00,VWS V14.01,2013-04-25 09:03:00,
2013-04-25 05:04:00,54.5,54.5,30.19,North,359,0.0,0.0,100,0.00,,SKC,0.00,VWS V14.01,2013-04-25 09:04:00,
2013-04-25 05:06:00,54.4,54.4,30.19,North,359,0.0,0.0,100,0.00,,SKC,0.00,VWS V14.01,2013-04-25 09:06:00,
2013-04-25 05:07:00,54.4,54.4,30.19,North,359,0.0,0.0,100,0.00,,SKC,0.00,VWS V14.01,2013-04-25 09:07:00,
2013-04-25 05:08:00,54.3,54.3,30.19,North,359,0.0,0.0,100,0.00,,SKC,0.00,VWS V14.01,2013-04-25 09:08:00,
2013-04-25 05:09:00,54.3,54.3,30.19,North,359,0.0,0.0,100,0.00,,SKC,0.00,VWS V14.01,2013-04-25 09:09:00,
2013-04-25 05:11:00,54.3,54.3,30.19,North,359,0.0,0.0,100,0.00,,SKC,0.00,VWS V14.01,2013-04-25 09:11:00,
2013-04-25 05:12:00,54.3,54.3,30.19,North,359,0.0,0.0,100,0.00,,SKC,0.00,VWS V14.01,2013-04-25 09:12:00,
2013-04-25 05:13:00,54.3,54.3,30.19,North,359,0.0,0.0,100,0.00,,SKC,0.00,VWS V14.01,2013-04-25 09:13:00,
2013-04-25 05:14:00,54.3,54.3,30.19,North,359,0.0,0.0,100,0.00,,SKC,0.00,VWS V14.01,2013-04-25 09:14:00,
2013-04-25 05:16:00,54.3,54.3,30.20,North,359,0.0,0.4,100,0.00,,SKC,0.00,VWS V14.01,2013-04-25 09:16:00,
2013-04-25 05:17:00,54.2,54.2,30.20,North,359,0.0,0.4,100,0.00,,SKC,0.00,VWS V14.01,2013-04-25 09:17:00,
2013-04-25 05:18:00,54.3,54.3,30.20,North,359,0.0,0.4,100,0.00,,SKC,0.00,VWS V14.01,2013-04-25 09:18:00,
2013-04-25 05:19:00,54.3,54.3,30.20,North,359,0.0,0.4,100,0.00,,SKC,0.00,VWS V14.01,2013-04-25 09:19:00,
2013-04-25 05:21:00,54.2,54.2,30.20,North,359,0.0,0.4,100,0.00,,SKC,0.00,VWS V14.01,2013-04-25 09:21:00,
2013-04-25 05:22:00,54.2,54.2,30.20,North,359,0.0,0.4,100,0.00,,SKC,0.00,VWS V14.01,2013-04-25 09:22:00,
2013-04-25 05:24:00,54.1,54.1,30.20,North,359,0.0,0.4,100,0.00,,SKC,0.00,VWS V14.01,2013-04-25 09:24:00,
2013-04-25 05:26:00,54.2,54.2,30.19,North,359,0.0,0.4,100,0.00,,SKC,0.00,VWS V14.01,2013-04-25 09:26:00,
2013-04-25 05:27:00,54.2,54.2,30.20,North,359,0.0,0.4,100,0.00,,SKC,0.00,VWS V14.01,2013-04-25 09:27:00,
2013-04-25 05:29:00,54.1,54.1,30.20,North,359,0.0,0.4,100,0.00,,SKC,0.00,VWS V14.01,2013-04-25 09:29:00,
2013-04-25 05:30:00,54.2,54.2,30.20,North,359,0.0,0.4,100,0.00,,SKC,0.00,VWS V14.01,2013-04-25 09:30:00,
2013-04-25 05:31:00,54.2,54.2,30.20,North,359,0.0,0.4,100,0.00,,SKC,0.00,VWS V14.01,2013-04-25 09:31:00,
2013-04-25 05:32:00,54.2,54.2,30.19,North,359,0.0,0.4,100,0.00,,SKC,0.00,VWS V14.01,2013-04-25 09:32:00,
2013-04-25 05:33:00,54.2,54.2,30.19,North,359,0.0,0.4,100,0.00,,SKC,0.00,VWS V14.01,2013-04-25 09:33:00,
2013-04-25 05:34:00,54.3,54.3,30.20,North,359,0.0,0.4,100,0.00,,SKC,0.00,VWS V14.01,2013-04-25 09:34:00,
2013-04-25 05:35:00,54.2,54.2,30.20,North,359,0.0,0.4,100,0.00,,SKC,0.00,VWS V14.01,2013-04-25 09:35:00,
2013-04-25 05:37:00,54.2,54.2,30.20,North,359,0.0,0.4,100,0.00,,SKC,0.00,VWS V14.01,2013-04-25 09:37:00,
2013-04-25 05:38:00,54.3,54.3,30.20,North,359,0.0,0.4,100,0.00,,SKC,0.00,VWS V14.01,2013-04-25 09:38:00,
2013-04-25 05:40:00,54.2,54.2,30.20,North,359,0.0,0.4,100,0.00,,SKC,0.00,VWS V14.01,2013-04-25 09:40:00,
2013-04-25 05:42:00,54.2,54.2,30.20,SSE,163,0.0,7.5,100,0.00,,SKC,0.00,VWS V14.01,2013-04-25 09:42:00,
2013-04-25 05:43:00,54.2,54.2,30.20,SSE,163,0.0,7.5,100,0.00,,SKC,0.00,VWS V14.01,2013-04-25 09:43:00,
2013-04-25 05:45:00,54.1,54.1,30.20,SSE,163,0.0,7.5,100,0.00,,SKC,0.00,VWS V14.01,2013-04-25 09:45:00,
2013-04-25 05:47:00,54.2,54.2,30.20,SSE,163,0.0,7.5,100,0.00,,SKC,0.00,VWS V14.01,2013-04-25 09:47:00,
2013-04-25 05:48:00,54.2,54.2,30.20,SSE,163,0.0,7.5,100,0.00,,SKC,0.00,VWS V14.01,2013-04-25 09:48:00,
2013-04-25 05:50:00,54.1,54.1,30.20,SSE,163,0.0,7.5,100,0.00,,SKC,0.00,VWS V14.01,2013-04-25 09:50:00,
2013-04-25 05:53:00,54.1,54.1,30.20,SSE,163,0.0,7.5,100,0.00,,SKC,0.00,VWS V14.01,2013-04-25 09:53:00,
2013-04-25 05:55:00,54.1,54.1,30.20,SSE,163,0.0,7.5,100,0.00,,SKC,0.00,VWS V14.01,2013-04-25 09:55:00,
2013-04-25 05:58:00,54.1,54.1,30.20,SSE,163,0.0,7.5,100,0.00,,SKC,0.00,VWS V14.01,2013-04-25 09:58:00,
2013-04-25 05:59:00,54.1,54.1,30.19,SSE,163,0.0,7.5,100,0.00,,SKC,0.00,VWS V14.01,2013-04-25 09:59:00,
2013-04-25 06:00:00,54.1,54.1,30.19,SSE,163,0.0,7.5,100,0.00,,SKC,0.00,VWS V14.01,2013-04-25 10:00:00,
2013-04-25 06:03:00,54.1,54.1,30.19,SSE,163,0.0,7.5,100,0.00,,SKC,0.00,VWS V14.01,2013-04-25 10:03:00,
2013-04-25 06:04:00,54.2,54.2,30.19,SSE,163,0.0,7.5,100,0.00,,SKC,0.00,VWS V14.01,2013-04-25 10:04:00,
2013-04-25 06:05:00,54.1,54.2,30.19,SSE,163,0.0,7.5,100,0.00,,SKC,0.00,VWS V14.01,2013-04-25 10:05:00,
2013-04-25 06:06:00,54.1,54.1,30.19,SSE,163,0.0,7.5,100,0.00,,SKC,0.00,VWS V14.01,2013-04-25 10:06:00,
2013-04-25 06:08:00,54.2,54.2,30.20,SSE,163,0.0,7.5,100,0.00,,SKC,0.00,VWS V14.01,2013-04-25 10:08:00,
2013-04-25 06:09:00,54.3,54.3,30.19,SSE,163,0.0,7.5,100,0.00,,SKC,0.00,VWS V14.01,2013-04-25 10:09:00,
2013-04-25 06:10:00,54.2,54.2,30.20,SSE,163,0.0,7.5,100,0.00,,SKC,0.00,VWS V14.01,2013-04-25 10:10:00,
2013-04-25 06:11:00,54.2,54.2,30.20,SSE,163,0.0,7.5,100,0.00,,SKC,0.00,VWS V14.01,2013-04-25 10:11:00,
2013-04-25 06:13:00,54.1,54.1,30.20,SSE,163,0.0,7.5,100,0.00,,SKC,0.00,VWS V14.01,2013-04-25 10:13:00,
2013-04-25 06:14:00,54.1,54.1,30.20,SSE,163,0.0,7.5,100,0.00,,SKC,0.00,VWS V14.01,2013-04-25 10:14:00,
2013-04-25 06:15:00,54.1,54.1,30.19,SSE,163,0.0,7.5,100,0.00,,SKC,0.00,VWS V14.01,2013-04-25 10:15:00,
2013-04-25 06:16:00,54.1,54.1,30.19,SSE,163,0.0,7.5,100,0.00,,SKC,0.00,VWS V14.01,2013-04-25 10:16:00,
2013-04-25 06:18:00,54.0,54.0,30.19,SSE,163,0.0,7.5,100,0.00,,SKC,0.00,VWS V14.01,2013-04-25 10:18:00,
2013-04-25 06:19:00,54.1,54.1,30.19,SSE,163,0.0,7.5,100,0.00,,SKC,0.00,VWS V14.01,2013-04-25 10:19:00,
2013-04-25 06:20:00,54.0,54.0,30.19,SSE,163,0.0,7.5,100,0.00,,SKC,0.00,VWS V14.01,2013-04-25 10:20:00,
2013-04-25 06:21:00,54.0,54.0,30.19,SSE,163,0.0,7.5,100,0.00,,SKC,0.00,VWS V14.01,2013-04-25 10:21:00,
2013-04-25 06:23:00,54.0,53.9,30.19,SSE,163,0.0,7.5,100,0.00,,SKC,0.00,VWS V14.01,2013-04-25 10:23:00,
2013-04-25 06:24:00,53.9,53.9,30.19,SSE,163,0.0,7.5,100,0.00,,SKC,0.00,VWS V14.01,2013-04-25 10:24:00,
2013-04-25 06:26:00,54.0,54.0,30.19,SSE,163,0.0,7.5,100,0.00,,SKC,0.00,VWS V14.01,2013-04-25 10:26:00,
2013-04-25 06:29:00,53.8,53.8,30.19,SSE,163,0.0,7.5,100,0.00,,SKC,0.00,VWS V14.01,2013-04-25 10:29:00,
2013-04-25 06:31:00,53.8,53.8,30.19,SSE,163,0.0,7.5,100,0.00,,SKC,0.00,VWS V14.01,2013-04-25 10:31:00,
2013-04-25 06:34:00,53.8,53.8,30.19,SSE,163,0.0,7.5,100,0.00,,SKC,0.00,VWS V14.01,2013-04-25 10:34:00,
2013-04-25 06:36:00,53.8,53.8,30.19,SSE,163,0.0,7.5,100,0.00,,SKC,0.00,VWS V14.01,2013-04-25 10:36:00,
2013-04-25 06:39:00,53.8,53.8,30.19,SSE,163,0.0,7.5,100,0.00,,SKC,0.00,VWS V14.01,2013-04-25 10:39:00,
2013-04-25 06:41:00,53.9,53.9,30.19,SSE,163,0.0,7.5,100,0.00,,SKC,0.00,VWS V14.01,2013-04-25 10:41:00,
2013-04-25 06:44:00,53.9,53.8,30.19,SSE,163,0.0,7.5,100,0.00,,SKC,0.00,VWS V14.01,2013-04-25 10:44:00,
2013-04-25 06:45:00,53.8,53.8,30.19,SSE,163,0.0,7.5,100,0.00,,SKC,0.00,VWS V14.01,2013-04-25 10:45:00,
2013-04-25 06:46:00,53.9,53.9,30.19,SSE,163,0.0,7.5,100,0.00,,SKC,0.00,VWS V14.01,2013-04-25 10:46:00,
2013-04-25 06:49:00,53.8,53.8,30.19,SSE,163,0.0,7.5,100,0.00,,SKC,0.00,VWS V14.01,2013-04-25 10:49:00,
2013-04-25 06:50:00,53.9,53.9,30.19,SSE,163,0.0,7.5,100,0.00,,SKC,0.00,VWS V14.01,2013-04-25 10:50:00,
2013-04-25 06:51:00,53.9,53.9,30.19,SSE,163,0.0,7.5,100,0.00,,SKC,0.00,VWS V14.01,2013-04-25 10:51:00,
2013-04-25 06:54:00,53.9,53.9,30.20,SSE,163,0.0,7.5,100,0.00,,SKC,0.00,VWS V14.01,2013-04-25 10:54:00,
2013-04-25 06:55:00,54.0,54.0,30.20,SSE,163,0.0,7.5,100,0.00,,SKC,0.00,VWS V14.01,2013-04-25 10:55:00,
2013-04-25 06:57:00,54.0,54.0,30.20,North,359,2.8,7.5,100,0.00,,SKC,0.00,VWS V14.01,2013-04-25 10:57:00,
2013-04-25 07:00:00,54.0,54.0,30.20,North,359,0.0,7.5,100,0.00,,SKC,0.00,VWS V14.01,2013-04-25 11:00:00,
2013-04-25 07:02:00,54.0,54.0,30.20,North,359,0.0,7.5,100,0.00,,SKC,0.00,VWS V14.01,2013-04-25 11:02:00,
2013-04-25 07:05:00,54.0,54.0,30.20,North,359,0.0,7.5,100,0.00,,SKC,0.00,VWS V14.01,2013-04-25 11:05:00,
2013-04-25 07:07:00,54.0,54.0,30.20,North,359,0.0,7.5,100,0.00,,SKC,0.00,VWS V14.01,2013-04-25 11:07:00,
2013-04-25 07:10:00,54.1,54.1,30.20,North,359,0.0,7.5,100,0.00,,SKC,0.00,VWS V14.01,2013-04-25 11:10:00,
2013-04-25 07:12:00,54.0,54.0,30.20,North,359,0.0,7.5,100,0.00,,SKC,0.00,VWS V14.01,2013-04-25 11:12:00,
2013-04-25 07:15:00,53.9,53.9,30.20,North,359,0.0,7.5,100,0.00,,SKC,0.00,VWS V14.01,2013-04-25 11:15:00,
2013-04-25 07:16:00,54.0,54.0,30.20,North,359,0.0,7.5,100,0.00,,SKC,0.00,VWS V14.01,2013-04-25 11:16:00,
2013-04-25 07:17:00,54.0,54.0,30.20,North,359,0.0,9.8,100,0.00,,SKC,0.00,VWS V14.01,2013-04-25 11:17:00,
2013-04-25 07:20:00,54.0,54.0,30.20,North,359,0.0,9.8,100,0.00,,SKC,0.00,VWS V14.01,2013-04-25 11:20:00,
2013-04-25 07:21:00,54.0,54.0,30.20,North,359,0.0,9.8,100,0.00,,SKC,0.00,VWS V14.01,2013-04-25 11:21:00,
2013-04-25 07:22:00,54.0,54.0,30.20,North,359,0.0,9.8,100,0.00,,SKC,0.00,VWS V14.01,2013-04-25 11:22:00,
2013-04-25 07:25:00,54.0,54.0,30.20,North,359,0.0,9.8,100,0.00,,SKC,0.00,VWS V14.01,2013-04-25 11:25:00,
2013-04-25 07:26:00,54.0,54.0,30.20,North,359,0.0,9.8,100,0.00,,SKC,0.00,VWS V14.01,2013-04-25 11:26:00,
2013-04-25 07:27:00,54.1,54.1,30.20,North,359,0.0,9.8,100,0.00,,SKC,0.00,VWS V14.01,2013-04-25 11:27:00,
2013-04-25 07:30:00,54.0,54.0,30.20,North,359,0.0,9.8,100,0.00,,SKC,0.00,VWS V14.01,2013-04-25 11:30:00,
2013-04-25 07:31:00,54.0,54.0,30.20,North,359,0.0,9.8,100,0.00,,SKC,0.00,VWS V14.01,2013-04-25 11:31:00,
2013-04-25 07:32:00,54.0,54.0,30.20,North,359,0.0,9.8,100,0.00,,SKC,0.00,VWS V14.01,2013-04-25 11:32:00,
2013-04-25 07:33:00,54.0,54.0,30.20,North,359,0.0,9.8,100,0.00,,SKC,0.00,VWS V14.01,2013-04-25 11:33:00,
2013-04-25 07:35:00,54.0,54.0,30.21,North,359,0.0,9.8,100,0.00,,SKC,0.00,VWS V14.01,2013-04-25 11:35:00,
2013-04-25 07:36:00,54.0,54.0,30.20,North,359,0.0,9.8,100,0.00,,SKC,0.00,VWS V14.01,2013-04-25 11:36:00,
2013-04-25 07:37:00,54.0,54.0,30.20,North,359,0.0,9.8,100,0.00,,SKC,0.00,VWS V14.01,2013-04-25 11:37:00,
2013-04-25 07:38:00,54.0,54.0,30.21,North,359,0.0,9.8,100,0.00,,SKC,0.00,VWS V14.01,2013-04-25 11:38:00,
2013-04-25 07:41:00,54.1,54.1,30.21,North,359,0.0,9.8,100,0.00,,SKC,0.00,VWS V14.01,2013-04-25 11:41:00,
2013-04-25 07:42:00,54.2,54.2,30.22,North,359,0.0,9.8,100,0.00,,SKC,0.00,VWS V14.01,2013-04-25 11:42:00,
2013-04-25 07:43:00,54.2,54.2,30.22,North,359,0.0,9.8,100,0.00,,SKC,0.00,VWS V14.01,2013-04-25 11:43:00,
2013-04-25 07:46:00,54.2,54.2,30.23,North,359,0.0,9.8,100,0.00,,SKC,0.00,VWS V14.01,2013-04-25 11:46:00,
2013-04-25 07:47:00,54.2,54.2,30.23,North,359,0.0,9.8,100,0.00,,SKC,0.00,VWS V14.01,2013-04-25 11:47:00,
2013-04-25 07:48:00,54.1,54.1,30.23,North,359,0.0,9.8,100,0.00,,SKC,0.00,VWS V14.01,2013-04-25 11:48:00,
2013-04-25 07:51:00,54.2,54.1,30.23,North,359,0.0,9.8,100,0.00,,SKC,0.00,VWS V14.01,2013-04-25 11:51:00,
2013-04-25 07:52:00,54.2,54.2,30.23,North,359,0.0,9.8,100,0.00,,SKC,0.00,VWS V14.01,2013-04-25 11:52:00,
2013-04-25 07:53:00,54.2,54.2,30.23,North,359,0.0,9.8,100,0.00,,SKC,0.00,VWS V14.01,2013-04-25 11:53:00,
2013-04-25 07:56:00,54.2,54.2,30.23,North,359,0.0,9.8,100,0.00,,SKC,0.00,VWS V14.01,2013-04-25 11:56:00,
2013-04-25 07:57:00,54.2,54.2,30.23,North,359,0.0,9.8,100,0.00,,SKC,0.00,VWS V14.01,2013-04-25 11:57:00,
2013-04-25 07:58:00,54.1,54.1,30.23,North,359,0.0,9.8,100,0.00,,SKC,0.00,VWS V14.01,2013-04-25 11:58:00,
2013-04-25 08:02:00,54.3,54.3,30.23,North,359,0.0,9.8,100,0.00,,SKC,0.00,VWS V14.01,2013-04-25 12:02:00,
2013-04-25 08:03:00,54.2,54.2,30.23,North,359,0.0,9.8,100,0.00,,SKC,0.00,VWS V14.01,2013-04-25 12:03:00,
2013-04-25 08:07:00,54.1,54.1,30.24,North,359,0.0,9.8,100,0.00,,SKC,0.00,VWS V14.01,2013-04-25 12:07:00,
2013-04-25 08:08:00,54.1,54.1,30.24,North,359,0.0,9.8,100,0.00,,SKC,0.00,VWS V14.01,2013-04-25 12:08:00,
2013-04-25 08:12:00,54.2,54.2,30.25,North,359,0.0,9.8,100,0.00,,SKC,0.00,VWS V14.01,2013-04-25 12:12:00,
2013-04-25 08:13:00,54.2,54.2,30.25,North,359,0.0,9.8,100,0.00,,SKC,0.00,VWS V14.01,2013-04-25 12:13:00,
2013-04-25 08:17:00,54.2,54.2,30.25,North,359,0.0,9.8,100,0.00,,SKC,0.00,VWS V14.01,2013-04-25 12:17:00,
2013-04-25 08:18:00,54.2,54.2,30.25,North,359,0.0,9.8,100,0.00,,SKC,0.00,VWS V14.01,2013-04-25 12:18:00,
2013-04-25 08:19:00,54.2,54.2,30.25,North,359,0.0,9.8,100,0.00,,SKC,0.00,VWS V14.01,2013-04-25 12:19:00,
2013-04-25 08:22:00,54.2,54.2,30.26,North,359,0.0,9.8,100,0.00,,SKC,0.00,VWS V14.01,2013-04-25 12:22:00,
2013-04-25 08:23:00,54.2,54.2,30.26,North,359,0.0,9.8,100,0.00,,SKC,0.00,VWS V14.01,2013-04-25 12:23:00,
2013-04-25 08:24:00,54.2,54.2,30.26,North,359,0.0,9.8,100,0.00,,SKC,0.00,VWS V14.01,2013-04-25 12:24:00,
2013-04-25 08:27:00,54.2,54.2,30.25,North,359,0.0,9.8,100,0.00,,SKC,0.00,VWS V14.01,2013-04-25 12:27:00,
2013-04-25 08:28:00,54.2,54.2,30.25,North,359,0.0,9.8,100,0.00,,SKC,0.00,VWS V14.01,2013-04-25 12:28:00,
2013-04-25 08:29:00,54.2,54.2,30.25,North,359,0.0,9.8,100,0.00,,SKC,0.00,VWS V14.01,2013-04-25 12:29:00,
2013-04-25 08:32:00,54.1,54.1,30.25,North,359,0.0,9.8,100,0.00,,SKC,0.00,VWS V14.01,2013-04-25 12:32:00,
2013-04-25 08:33:00,54.2,54.1,30.25,North,359,0.0,9.8,100,0.00,,SKC,0.00,VWS V14.01,2013-04-25 12:33:00,
2013-04-25 08:34:00,54.1,54.1,30.25,North,359,0.0,9.8,100,0.00,,SKC,0.00,VWS V14.01,2013-04-25 12:34:00,
2013-04-25 08:37:00,54.3,54.3,30.25,North,359,0.0,9.8,100,0.00,,SKC,0.00,VWS V14.01,2013-04-25 12:37:00,
2013-04-25 08:38:00,54.3,54.2,30.25,North,359,0.0,9.8,100,0.00,,SKC,0.00,VWS V14.01,2013-04-25 12:38:00,
2013-04-25 08:39:00,54.3,54.3,30.25,North,359,0.0,9.8,100,0.00,,SKC,0.00,VWS V14.01,2013-04-25 12:39:00,
2013-04-25 08:42:00,54.4,54.4,30.26,North,359,0.0,9.8,100,0.00,,SKC,0.00,VWS V14.01,2013-04-25 12:42:00,
2013-04-25 08:43:00,54.4,54.4,30.26,North,359,0.0,9.8,100,0.00,,SKC,0.00,VWS V14.01,2013-04-25 12:43:00,
2013-04-25 08:44:00,54.4,54.4,30.25,North,359,0.0,9.8,100,0.00,,SKC,0.00,VWS V14.01,2013-04-25 12:44:00,
2013-04-25 08:48:00,54.2,54.2,30.26,North,359,0.0,9.8,100,0.00,,SKC,0.00,VWS V14.01,2013-04-25 12:48:00,
2013-04-25 08:49:00,54.2,54.3,30.26,North,359,0.0,9.8,100,0.00,,SKC,0.00,VWS V14.01,2013-04-25 12:49:00,
2013-04-25 08:50:00,54.3,54.3,30.26,North,359,0.0,9.8,100,0.00,,SKC,0.00,VWS V14.01,2013-04-25 12:50:00,
2013-04-25 08:53:00,54.3,54.3,30.26,North,359,0.0,9.8,100,0.00,,SKC,0.00,VWS V14.01,2013-04-25 12:53:00,
2013-04-25 08:54:00,54.3,54.3,30.26,North,359,0.0,9.8,100,0.00,,SKC,0.00,VWS V14.01,2013-04-25 12:54:00,
2013-04-25 08:55:00,54.3,54.3,30.26,North,359,0.0,9.8,100,0.00,,SKC,0.00,VWS V14.01,2013-04-25 12:55:00,
2013-04-25 08:58:00,54.3,54.3,30.26,North,359,0.0,9.8,100,0.00,,SKC,0.00,VWS V14.01,2013-04-25 12:58:00,
2013-04-25 08:59:00,54.3,54.2,30.26,North,359,0.0,9.8,100,0.00,,SKC,0.00,VWS V14.01,2013-04-25 12:59:00,
2013-04-25 09:00:00,54.3,54.3,30.26,North,359,0.0,9.8,100,0.00,,SKC,0.00,VWS V14.01,2013-04-25 13:00:00,
2013-04-25 09:03:00,54.4,54.4,30.26,North,359,0.0,9.8,100,0.00,,SKC,0.00,VWS V14.01,2013-04-25 13:03:00,
2013-04-25 09:04:00,54.4,54.4,30.26,North,359,0.0,9.8,100,0.00,,SKC,0.00,VWS V14.01,2013-04-25 13:04:00,
2013-04-25 09:05:00,54.3,54.3,30.26,North,359,0.0,9.8,100,0.00,,SKC,0.00,VWS V14.01,2013-04-25 13:05:00,
2013-04-25 09:08:00,54.1,54.1,30.26,North,359,0.0,9.8,100,0.00,,SKC,0.00,VWS V14.01,2013-04-25 13:08:00,
2013-04-25 09:09:00,54.1,54.1,30.26,North,359,0.0,9.8,100,0.00,,SKC,0.00,VWS V14.01,2013-04-25 13:09:00,
2013-04-25 09:11:00,54.1,54.1,30.26,North,359,0.0,9.8,100,0.00,,SKC,0.00,VWS V14.01,2013-04-25 13:11:00,
2013-04-25 09:13:00,54.1,54.1,30.26,North,359,0.0,9.8,100,0.00,,SKC,0.00,VWS V14.01,2013-04-25 13:13:00,
2013-04-25 09:14:00,54.1,54.1,30.26,North,359,0.0,9.8,100,0.00,,SKC,0.00,VWS V14.01,2013-04-25 13:14:00,
2013-04-25 09:16:00,54.1,54.1,30.26,North,359,0.0,9.8,100,0.00,,SKC,0.00,VWS V14.01,2013-04-25 13:16:00,
2013-04-25 09:19:00,54.2,54.2,30.26,North,359,0.0,9.8,100,0.00,,SKC,0.00,VWS V14.01,2013-04-25 13:19:00,
2013-04-25 09:21:00,54.2,54.2,30.26,North,359,0.0,9.8,100,0.00,,SKC,0.00,VWS V14.01,2013-04-25 13:21:00,
2013-04-25 09:24:00,54.2,54.2,30.27,North,359,0.0,9.8,100,0.00,,SKC,0.00,VWS V14.01,2013-04-25 13:24:00,
2013-04-25 09:25:00,54.2,54.2,30.27,North,359,0.0,9.8,100,0.00,,SKC,0.00,VWS V14.01,2013-04-25 13:25:00,
2013-04-25 09:26:00,54.2,54.2,30.27,North,359,0.0,9.8,100,0.00,,SKC,0.00,VWS V14.01,2013-04-25 13:26:00,
2013-04-25 09:29:00,54.1,54.1,30.27,North,359,0.0,9.8,100,0.00,,SKC,0.00,VWS V14.01,2013-04-25 13:29:00,
2013-04-25 09:30:00,54.2,54.2,30.27,North,359,4.8,9.8,100,0.00,,SKC,0.00,VWS V14.01,2013-04-25 13:30:00,
2013-04-25 09:32:00,54.0,54.0,30.27,North,359,0.0,9.8,100,0.00,,SKC,0.00,VWS V14.01,2013-04-25 13:32:00,
2013-04-25 09:34:00,54.0,54.0,30.27,North,359,0.0,9.8,100,0.00,,SKC,0.00,VWS V14.01,2013-04-25 13:34:00,
2013-04-25 09:35:00,54.0,54.0,30.27,North,359,0.0,9.8,100,0.00,,SKC,0.00,VWS V14.01,2013-04-25 13:35:00,
2013-04-25 09:37:00,54.1,54.1,30.27,North,359,0.0,9.8,100,0.00,,SKC,0.00,VWS V14.01,2013-04-25 13:37:00,
2013-04-25 09:39:00,54.1,54.1,30.27,North,359,0.0,9.8,100,0.00,,SKC,0.00,VWS V14.01,2013-04-25 13:39:00,
2013-04-25 09:40:00,54.2,54.2,30.27,North,359,0.0,9.8,100,0.00,,SKC,0.00,VWS V14.01,2013-04-25 13:40:00,
2013-04-25 09:41:00,54.2,54.3,30.26,North,359,0.0,9.8,100,0.00,,SKC,0.00,VWS V14.01,2013-04-25 13:41:00,
2013-04-25 09:42:00,54.4,54.4,30.26,North,359,0.0,9.8,100,0.00,,SKC,0.00,VWS V14.01,2013-04-25 13:42:00,
2013-04-25 09:44:00,54.6,54.6,30.26,North,359,0.0,9.8,100,0.00,,SKC,0.00,VWS V14.01,2013-04-25 13:44:00,
2013-04-25 09:45:00,54.6,54.6,30.26,North,359,0.0,9.8,100,0.00,,SKC,0.00,VWS V14.01,2013-04-25 13:45:00,
2013-04-25 09:46:00,54.7,54.7,30.26,North,359,0.0,9.8,100,0.00,,SKC,0.00,VWS V14.01,2013-04-25 13:46:00,
2013-04-25 09:48:00,54.7,54.7,30.26,North,359,0.0,9.8,100,0.00,,SKC,0.00,VWS V14.01,2013-04-25 13:48:00,
2013-04-25 09:50:00,54.7,54.7,30.26,North,359,0.0,9.8,100,0.00,,SKC,0.00,VWS V14.01,2013-04-25 13:50:00,
2013-04-25 09:51:00,54.8,54.8,30.26,North,359,0.0,9.8,100,0.00,,SKC,0.00,VWS V14.01,2013-04-25 13:51:00,
2013-04-25 09:53:00,55.1,55.1,30.27,North,359,0.0,9.8,100,0.00,,SKC,0.00,VWS V14.01,2013-04-25 13:53:00,
2013-04-25 09:55:00,55.0,55.0,30.26,North,359,0.0,9.8,100,0.00,,SKC,0.00,VWS V14.01,2013-04-25 13:55:00,
2013-04-25 09:56:00,55.0,55.0,30.26,North,359,0.0,9.8,100,0.00,,SKC,0.00,VWS V14.01,2013-04-25 13:56:00,
2013-04-25 09:58:00,55.1,55.1,30.27,North,359,0.0,9.8,100,0.00,,SKC,0.00,VWS V14.01,2013-04-25 13:58:00,
2013-04-25 10:00:00,55.2,55.2,30.26,North,359,0.0,9.8,100,0.00,,SKC,0.00,VWS V14.01,2013-04-25 14:00:00,
2013-04-25 10:01:00,55.3,55.3,30.27,North,359,0.0,9.8,100,0.00,,SKC,0.00,VWS V14.01,2013-04-25 14:01:00,
2013-04-25 10:03:00,55.4,55.4,30.27,North,359,0.0,9.8,100,0.00,,SKC,0.00,VWS V14.01,2013-04-25 14:03:00,
2013-04-25 10:05:00,55.5,55.5,30.27,North,359,0.0,9.8,100,0.00,,SKC,0.00,VWS V14.01,2013-04-25 14:05:00,
2013-04-25 10:06:00,55.4,55.4,30.27,North,359,0.0,9.8,100,0.00,,SKC,0.00,VWS V14.01,2013-04-25 14:06:00,
2013-04-25 10:08:00,55.5,55.5,30.27,North,359,0.0,9.8,100,0.00,,SKC,0.00,VWS V14.01,2013-04-25 14:08:00,
2013-04-25 10:10:00,55.7,55.7,30.27,North,359,0.0,9.8,100,0.00,,SKC,0.00,VWS V14.01,2013-04-25 14:10:00,
2013-04-25 10:11:00,55.9,55.9,30.27,North,359,0.0,9.8,100,0.00,,SKC,0.00,VWS V14.01,2013-04-25 14:11:00,
2013-04-25 10:13:00,55.6,55.6,30.27,North,359,0.0,9.8,100,0.00,,SKC,0.00,VWS V14.01,2013-04-25 14:13:00,
2013-04-25 10:15:00,55.7,55.7,30.28,North,359,0.0,9.8,100,0.00,,SKC,0.00,VWS V14.01,2013-04-25 14:15:00,
2013-04-25 10:16:00,55.7,55.7,30.27,North,359,0.0,9.8,100,0.00,,SKC,0.00,VWS V14.01,2013-04-25 14:16:00,
2013-04-25 10:18:00,55.7,55.7,30.27,North,359,0.0,9.8,100,0.00,,SKC,0.00,VWS V14.01,2013-04-25 14:18:00,
2013-04-25 10:20:00,55.8,55.8,30.28,North,359,0.0,9.8,100,0.00,,SKC,0.00,VWS V14.01,2013-04-25 14:20:00,
2013-04-25 10:21:00,55.8,55.8,30.28,North,359,0.0,9.8,100,0.00,,SKC,0.00,VWS V14.01,2013-04-25 14:21:00,
2013-04-25 10:23:00,55.8,55.8,30.28,North,359,0.0,9.8,100,0.00,,SKC,0.00,VWS V14.01,2013-04-25 14:23:00,
2013-04-25 10:25:00,55.9,55.9,30.28,North,359,0.0,9.8,100,0.00,,SKC,0.00,VWS V14.01,2013-04-25 14:25:00,
2013-04-25 10:26:00,56.0,56.0,30.28,North,359,0.0,9.8,100,0.00,,SKC,0.00,VWS V14.01,2013-04-25 14:26:00,
2013-04-25 10:29:00,56.0,56.0,30.28,North,359,0.0,9.8,100,0.00,,SKC,0.00,VWS V14.01,2013-04-25 14:29:00,
2013-04-25 10:30:00,55.9,55.9,30.28,North,359,0.0,9.8,100,0.00,,SKC,0.00,VWS V14.01,2013-04-25 14:30:00,
2013-04-25 10:31:00,56.0,56.0,30.28,North,359,0.0,9.8,100,0.00,,SKC,0.00,VWS V14.01,2013-04-25 14:31:00,
2013-04-25 10:34:00,56.0,56.0,30.28,North,359,0.0,9.8,100,0.00,,SKC,0.00,VWS V14.01,2013-04-25 14:34:00,
2013-04-25 10:35:00,56.0,56.0,30.28,North,359,0.0,9.8,100,0.00,,SKC,0.00,VWS V14.01,2013-04-25 14:35:00,
2013-04-25 10:36:00,55.8,55.8,30.28,North,359,0.0,9.8,100,0.00,,SKC,0.00,VWS V14.01,2013-04-25 14:36:00,
2013-04-25 10:39:00,56.1,56.1,30.28,North,359,0.0,9.8,100,0.00,,SKC,0.00,VWS V14.01,2013-04-25 14:39:00,
2013-04-25 10:40:00,56.1,56.1,30.28,North,359,0.0,9.8,100,0.00,,SKC,0.00,VWS V14.01,2013-04-25 14:40:00,
2013-04-25 10:41:00,55.9,55.9,30.28,North,359,0.0,9.8,100,0.00,,SKC,0.00,VWS V14.01,2013-04-25 14:41:00,
2013-04-25 10:42:00,55.8,55.8,30.28,North,359,0.0,9.8,100,0.00,,SKC,0.00,VWS V14.01,2013-04-25 14:42:00,
2013-04-25 10:45:00,55.7,55.8,30.28,North,359,0.0,9.8,100,0.00,,SKC,0.00,VWS V14.01,2013-04-25 14:45:00,
2013-04-25 10:46:00,55.9,55.9,30.28,North,359,0.0,9.8,100,0.00,,SKC,0.00,VWS V14.01,2013-04-25 14:46:00,
2013-04-25 10:47:00,56.0,56.0,30.28,North,359,0.0,9.8,100,0.00,,SKC,0.00,VWS V14.01,2013-04-25 14:47:00,
2013-04-25 10:50:00,56.3,56.3,30.28,North,359,0.0,9.8,100,0.00,,SKC,0.00,VWS V14.01,2013-04-25 14:50:00,
2013-04-25 10:51:00,56.3,56.3,30.28,North,359,0.0,9.8,100,0.00,,SKC,0.00,VWS V14.01,2013-04-25 14:51:00,
2013-04-25 10:52:00,56.3,56.3,30.28,North,359,0.0,9.8,100,0.00,,SKC,0.00,VWS V14.01,2013-04-25 14:52:00,
2013-04-25 10:55:00,56.4,56.4,30.28,North,359,0.0,9.8,100,0.00,,SKC,0.00,VWS V14.01,2013-04-25 14:55:00,
2013-04-25 10:56:00,56.6,56.6,30.29,North,359,0.0,9.8,100,0.00,,SKC,0.00,VWS V14.01,2013-04-25 14:56:00,
2013-04-25 10:57:00,56.7,56.7,30.29,North,359,0.0,9.8,100,0.00,,SKC,0.00,VWS V14.01,2013-04-25 14:57:00,
2013-04-25 11:00:00,56.7,56.7,30.29,North,359,0.0,9.8,100,0.00,,SKC,0.00,VWS V14.01,2013-04-25 15:00:00,
2013-04-25 11:01:00,56.7,56.7,30.28,North,359,0.0,9.8,100,0.00,,SKC,0.00,VWS V14.01,2013-04-25 15:01:00,
2013-04-25 11:02:00,56.7,56.7,30.28,North,359,0.0,9.8,100,0.00,,SKC,0.00,VWS V14.01,2013-04-25 15:02:00,
2013-04-25 11:05:00,57.0,57.0,30.29,North,359,0.0,9.8,100,0.00,,SKC,0.00,VWS V14.01,2013-04-25 15:05:00,
2013-04-25 11:06:00,57.0,57.0,30.29,North,359,0.0,9.8,100,0.00,,SKC,0.00,VWS V14.01,2013-04-25 15:06:00,
2013-04-25 11:07:00,57.0,57.1,30.29,North,359,0.0,9.8,100,0.00,,SKC,0.00,VWS V14.01,2013-04-25 15:07:00,
2013-04-25 11:10:00,56.9,56.9,30.28,North,359,0.0,9.8,100,0.00,,SKC,0.00,VWS V14.01,2013-04-25 15:10:00,
2013-04-25 11:12:00,57.0,57.0,30.29,North,359,0.0,9.8,100,0.00,,SKC,0.00,VWS V14.01,2013-04-25 15:12:00,
2013-04-25 11:15:00,57.2,57.2,30.28,North,359,0.0,9.8,100,0.00,,SKC,0.00,VWS V14.01,2013-04-25 15:15:00,
2013-04-25 11:17:00,57.3,57.3,30.28,North,359,0.0,9.8,100,0.00,,SKC,0.00,VWS V14.01,2013-04-25 15:17:00,
2013-04-25 11:18:00,57.2,57.2,30.28,North,359,0.0,9.8,100,0.00,,SKC,0.00,VWS V14.01,2013-04-25 15:18:00,
2013-04-25 11:20:00,57.7,57.7,30.28,North,359,0.0,9.8,100,0.00,,SKC,0.00,VWS V14.01,2013-04-25 15:20:00,
2013-04-25 11:22:00,58.0,58.0,30.28,North,359,0.0,9.8,100,0.00,,SKC,0.00,VWS V14.01,2013-04-25 15:22:00,
2013-04-25 11:23:00,58.0,58.0,30.28,North,359,0.0,9.8,100,0.00,,SKC,0.00,VWS V14.01,2013-04-25 15:23:00,
2013-04-25 11:25:00,57.9,57.9,30.28,SSE,162,0.0,9.8,100,0.00,,SKC,0.00,VWS V14.01,2013-04-25 15:25:00,
2013-04-25 11:27:00,58.1,58.1,30.28,SSE,162,0.0,9.8,100,0.00,,SKC,0.00,VWS V14.01,2013-04-25 15:27:00,
2013-04-25 11:28:00,58.2,58.2,30.28,SSE,162,0.0,9.8,100,0.00,,SKC,0.00,VWS V14.01,2013-04-25 15:28:00,
2013-04-25 11:31:00,58.3,58.4,30.28,SSE,159,3.9,9.8,100,0.00,,SKC,0.00,VWS V14.01,2013-04-25 15:31:00,
2013-04-25 11:32:00,58.4,58.4,30.28,SSE,159,0.0,9.8,100,0.00,,SKC,0.00,VWS V14.01,2013-04-25 15:32:00,
2013-04-25 11:33:00,58.4,58.5,30.28,SSE,159,0.0,9.8,100,0.00,,SKC,0.00,VWS V14.01,2013-04-25 15:33:00,
2013-04-25 11:36:00,58.7,58.7,30.28,SSE,159,5.2,9.8,100,0.00,,SKC,0.00,VWS V14.01,2013-04-25 15:36:00,
2013-04-25 11:38:00,59.0,59.0,30.29,SSE,159,0.0,9.8,100,0.00,,SKC,0.00,VWS V14.01,2013-04-25 15:38:00,
2013-04-25 11:41:00,59.0,59.0,30.29,North,359,0.0,9.8,100,0.00,,SKC,0.00,VWS V14.01,2013-04-25 15:41:00,
2013-04-25 11:43:00,58.9,58.9,30.29,North,359,0.0,9.8,100,0.00,,SKC,0.00,VWS V14.01,2013-04-25 15:43:00,
2013-04-25 11:46:00,59.2,59.1,30.29,North,359,0.0,9.8,100,0.00,,SKC,0.00,VWS V14.01,2013-04-25 15:46:00,
2013-04-25 11:48:00,59.3,59.1,30.29,North,359,0.0,9.8,100,0.00,,SKC,0.00,VWS V14.01,2013-04-25 15:48:00,
2013-04-25 11:49:00,59.3,59.3,30.29,North,359,0.0,9.8,100,0.00,,SKC,0.00,VWS V14.01,2013-04-25 15:49:00,
2013-04-25 11:51:00,59.5,59.5,30.29,North,359,0.0,9.8,100,0.00,,SKC,0.00,VWS V14.01,2013-04-25 15:51:00,
2013-04-25 11:53:00,59.7,59.5,30.30,North,359,0.0,9.8,100,0.00,,SKC,0.00,VWS V14.01,2013-04-25 15:53:00,
2013-04-25 11:54:00,59.6,59.3,30.30,North,359,0.0,9.8,99,0.00,,SKC,0.00,VWS V14.01,2013-04-25 15:54:00,
2013-04-25 11:56:00,59.8,59.6,30.30,North,359,0.0,9.8,99,0.00,,SKC,0.00,VWS V14.01,2013-04-25 15:56:00,
2013-04-25 11:58:00,60.4,60.2,30.30,North,359,0.0,9.8,99,0.00,,SKC,0.00,VWS V14.01,2013-04-25 15:58:00,
2013-04-25 11:59:00,60.5,60.4,30.30,North,359,0.0,9.8,100,0.00,,SKC,0.00,VWS V14.01,2013-04-25 15:59:00,
2013-04-25 12:01:00,60.7,60.4,30.29,North,359,0.0,9.8,99,0.00,,SKC,0.00,VWS V14.01,2013-04-25 16:01:00,
2013-04-25 12:03:00,60.9,60.7,30.29,North,359,0.0,9.8,99,0.00,,SKC,0.00,VWS V14.01,2013-04-25 16:03:00,
2013-04-25 12:04:00,61.2,61.0,30.29,North,359,0.0,9.8,99,0.00,,SKC,0.00,VWS V14.01,2013-04-25 16:04:00,
2013-04-25 12:05:00,61.5,61.3,30.29,North,359,0.0,9.8,99,0.00,,SKC,0.00,VWS V14.01,2013-04-25 16:05:00,
2013-04-25 12:06:00,61.6,61.2,30.29,North,359,0.0,9.8,99,0.00,,SKC,0.00,VWS V14.01,2013-04-25 16:06:00,
2013-04-25 12:08:00,61.9,61.5,30.28,North,359,7.9,9.8,98,0.00,,SKC,0.00,VWS V14.01,2013-04-25 16:08:00,
2013-04-25 12:09:00,62.1,61.7,30.29,North,359,0.0,9.8,99,0.00,,SKC,0.00,VWS V14.01,2013-04-25 16:09:00,
2013-04-25 12:10:00,62.2,61.8,30.29,North,359,0.0,9.8,99,0.00,,SKC,0.00,VWS V14.01,2013-04-25 16:10:00,
2013-04-25 12:11:00,62.3,61.6,30.29,North,359,0.0,9.8,98,0.00,,SKC,0.00,VWS V14.01,2013-04-25 16:11:00,
2013-04-25 12:13:00,62.5,61.8,30.29,SE,145,0.0,9.8,98,0.00,,SKC,0.00,VWS V14.01,2013-04-25 16:13:00,
2013-04-25 12:15:00,62.5,61.8,30.29,SE,145,0.0,9.8,98,0.00,,SKC,0.00,VWS V14.01,2013-04-25 16:15:00,
2013-04-25 12:17:00,62.6,61.9,30.29,SSW,193,4.0,9.8,98,0.00,,SKC,0.00,VWS V14.01,2013-04-25 16:17:00,
2013-04-25 12:18:00,62.9,62.1,30.29,SSW,193,0.0,9.8,97,0.00,,SKC,0.00,VWS V14.01,2013-04-25 16:18:00,
2013-04-25 12:20:00,62.9,62.1,30.29,SSW,193,0.0,9.8,97,0.00,,SKC,0.00,VWS V14.01,2013-04-25 16:20:00,
2013-04-25 12:22:00,62.8,61.9,30.28,SSW,193,0.0,9.8,97,0.00,,SKC,0.00,VWS V14.01,2013-04-25 16:22:00,
2013-04-25 12:24:00,62.7,61.7,30.29,SSW,193,0.0,9.8,96,0.00,,SKC,0.00,VWS V14.01,2013-04-25 16:24:00,
2013-04-25 12:25:00,62.7,61.8,30.29,SSW,193,0.0,9.8,97,0.00,,SKC,0.00,VWS V14.01,2013-04-25 16:25:00,
2013-04-25 12:27:00,62.8,62.0,30.29,SSW,193,0.0,9.8,97,0.00,,SKC,0.00,VWS V14.01,2013-04-25 16:27:00,
2013-04-25 12:29:00,63.1,62.3,30.29,SSW,193,0.0,9.8,97,0.00,,SKC,0.00,VWS V14.01,2013-04-25 16:29:00,
2013-04-25 12:30:00,63.1,62.2,30.28,SSW,193,0.0,9.8,97,0.00,,SKC,0.00,VWS V14.01,2013-04-25 16:30:00,
2013-04-25 12:33:00,63.2,62.2,30.29,SSW,193,0.0,9.8,97,0.00,,SKC,0.00,VWS V14.01,2013-04-25 16:33:00,
2013-04-25 12:34:00,63.4,62.5,30.29,SSW,193,0.0,9.8,97,0.00,,SKC,0.00,VWS V14.01,2013-04-25 16:34:00,
2013-04-25 12:35:00,63.7,62.9,30.29,ESE,105,2.8,9.8,97,0.00,,SKC,0.00,VWS V14.01,2013-04-25 16:35:00,
2013-04-25 12:36:00,63.7,62.7,30.29,ESE,105,0.0,9.8,96,0.00,,SKC,0.00,VWS V14.01,2013-04-25 16:36:00,
2013-04-25 12:38:00,63.2,62.0,30.30,ESE,105,0.0,9.8,96,0.00,,SKC,0.00,VWS V14.01,2013-04-25 16:38:00,
2013-04-25 12:39:00,63.2,62.2,30.30,ESE,105,0.0,9.8,96,0.00,,SKC,0.00,VWS V14.01,2013-04-25 16:39:00,
2013-04-25 12:40:00,63.5,62.6,30.30,ESE,105,0.0,9.8,97,0.00,,SKC,0.00,VWS V14.01,2013-04-25 16:40:00,
2013-04-25 12:41:00,63.6,62.7,30.30,ESE,105,0.0,9.8,97,0.00,,SKC,0.00,VWS V14.01,2013-04-25 16:41:00,
2013-04-25 12:44:00,63.8,62.8,30.31,ESE,105,0.0,9.8,96,0.00,,SKC,0.00,VWS V14.01,2013-04-25 16:44:00,
2013-04-25 12:46:00,64.2,63.2,30.30,ESE,105,0.0,9.8,96,0.00,,SKC,0.00,VWS V14.01,2013-04-25 16:46:00,
2013-04-25 12:47:00,64.3,63.2,30.31,ESE,105,0.0,9.8,96,0.00,,SKC,0.00,VWS V14.01,2013-04-25 16:47:00,
2013-04-25 12:49:00,64.4,63.2,30.31,ESE,105,0.0,9.8,96,0.00,,SKC,0.00,VWS V14.01,2013-04-25 16:49:00,
2013-04-25 12:50:00,64.7,63.4,30.31,ESE,105,0.0,9.8,96,0.00,,SKC,0.00,VWS V14.01,2013-04-25 16:50:00,
2013-04-25 12:51:00,64.6,63.3,30.31,ESE,105,0.0,9.8,95,0.00,,SKC,0.00,VWS V14.01,2013-04-25 16:51:00,
2013-04-25 12:52:00,64.6,63.2,30.31,ESE,105,0.0,9.8,95,0.00,,SKC,0.00,VWS V14.01,2013-04-25 16:52:00,
2013-04-25 12:54:00,64.8,63.5,30.31,ESE,105,0.0,9.8,96,0.00,,SKC,0.00,VWS V14.01,2013-04-25 16:54:00,
2013-04-25 12:55:00,64.9,63.7,30.31,ESE,105,0.0,9.8,96,0.00,,SKC,0.00,VWS V14.01,2013-04-25 16:55:00,
2013-04-25 12:56:00,64.9,63.6,30.31,ESE,105,0.0,9.8,95,0.00,,SKC,0.00,VWS V14.01,2013-04-25 16:56:00,
2013-04-25 12:57:00,64.8,63.3,30.31,ESE,105,0.0,9.8,95,0.00,,SKC,0.00,VWS V14.01,2013-04-25 16:57:00,
2013-04-25 12:59:00,64.8,63.5,30.31,ESE,105,0.0,9.8,96,0.00,,SKC,0.00,VWS V14.01,2013-04-25 16:59:00,
2013-04-25 13:00:00,64.8,63.6,30.31,SSE,163,0.0,9.8,96,0.00,,SKC,0.00,VWS V14.01,2013-04-25 17:00:00,
2013-04-25 13:01:00,65.0,63.8,30.31,SSE,163,0.0,9.8,96,0.00,,SKC,0.00,VWS V14.01,2013-04-25 17:01:00,
2013-04-25 13:02:00,65.1,64.1,30.31,SSE,163,0.0,9.8,96,0.00,,SKC,0.00,VWS V14.01,2013-04-25 17:02:00,
2013-04-25 13:04:00,65.8,64.6,30.31,SSE,163,0.0,9.8,96,0.00,,SKC,0.00,VWS V14.01,2013-04-25 17:04:00,
2013-04-25 13:05:00,65.8,63.6,30.32,SSE,163,0.0,9.8,93,0.00,,SKC,0.00,VWS V14.01,2013-04-25 17:05:00,
2013-04-25 13:06:00,65.7,63.6,30.32,SSE,163,0.0,9.8,93,0.00,,SKC,0.00,VWS V14.01,2013-04-25 17:06:00,
2013-04-25 13:07:00,65.8,64.0,30.31,SSE,163,0.0,9.8,94,0.00,,SKC,0.00,VWS V14.01,2013-04-25 17:07:00,
2013-04-25 13:09:00,66.1,64.4,30.31,SSE,163,0.0,9.8,94,0.00,,SKC,0.00,VWS V14.01,2013-04-25 17:09:00,
2013-04-25 13:10:00,66.1,64.1,30.31,SSE,163,0.0,9.8,93,0.00,,SKC,0.00,VWS V14.01,2013-04-25 17:10:00,
2013-04-25 13:11:00,66.1,64.1,30.31,SSE,163,0.0,9.8,93,0.00,,SKC,0.00,VWS V14.01,2013-04-25 17:11:00,
2013-04-25 13:12:00,66.1,64.2,30.31,North,359,0.0,9.8,94,0.00,,SKC,0.00,VWS V14.01,2013-04-25 17:12:00,
2013-04-25 13:14:00,66.4,65.0,30.31,North,359,0.0,9.8,95,0.00,,SKC,0.00,VWS V14.01,2013-04-25 17:14:00,
2013-04-25 13:16:00,66.4,64.3,30.31,North,359,0.0,9.8,93,0.00,,SKC,0.00,VWS V14.01,2013-04-25 17:16:00,
2013-04-25 13:17:00,66.3,63.9,30.32,North,359,0.0,9.8,92,0.00,,SKC,0.00,VWS V14.01,2013-04-25 17:17:00,
2013-04-25 13:19:00,66.3,64.4,30.31,North,359,0.0,9.8,94,0.00,,SKC,0.00,VWS V14.01,2013-04-25 17:19:00,
2013-04-25 13:21:00,66.5,64.8,30.31,North,359,0.0,9.8,94,0.00,,SKC,0.00,VWS V14.01,2013-04-25 17:21:00,
2013-04-25 13:22:00,66.5,64.8,30.31,North,359,0.0,9.8,94,0.00,,SKC,0.00,VWS V14.01,2013-04-25 17:22:00,
2013-04-25 13:23:00,66.7,65.0,30.31,North,359,0.0,9.8,94,0.00,,SKC,0.00,VWS V14.01,2013-04-25 17:23:00,
2013-04-25 13:25:00,66.5,64.4,30.31,North,359,0.0,9.8,93,0.00,,SKC,0.00,VWS V14.01,2013-04-25 17:25:00,
2013-04-25 13:26:00,66.4,64.4,30.30,North,359,0.0,9.8,93,0.00,,SKC,0.00,VWS V14.01,2013-04-25 17:26:00,
2013-04-25 13:27:00,66.3,64.3,30.30,North,359,0.0,9.8,93,0.00,,SKC,0.00,VWS V14.01,2013-04-25 17:27:00,
2013-04-25 13:28:00,66.4,64.4,30.30,North,359,0.0,9.8,94,0.00,,SKC,0.00,VWS V14.01,2013-04-25 17:28:00,
2013-04-25 13:30:00,66.2,64.3,30.30,North,359,0.0,9.8,94,0.00,,SKC,0.00,VWS V14.01,2013-04-25 17:30:00,
2013-04-25 13:31:00,66.3,64.6,30.30,North,359,0.0,9.8,94,0.00,,SKC,0.00,VWS V14.01,2013-04-25 17:31:00,
2013-04-25 13:32:00,66.3,64.7,30.30,North,359,0.0,9.8,95,0.00,,SKC,0.00,VWS V14.01,2013-04-25 17:32:00,
2013-04-25 13:33:00,66.5,65.1,30.31,North,359,0.0,9.8,95,0.00,,SKC,0.00,VWS V14.01,2013-04-25 17:33:00,
2013-04-25 13:35:00,66.7,64.7,30.30,North,359,0.0,9.8,93,0.00,,SKC,0.00,VWS V14.01,2013-04-25 17:35:00,
2013-04-25 13:37:00,67.0,65.2,30.30,North,359,0.0,9.8,94,0.00,,SKC,0.00,VWS V14.01,2013-04-25 17:37:00,
2013-04-25 13:38:00,67.1,65.2,30.30,North,359,0.0,9.8,94,0.00,,SKC,0.00,VWS V14.01,2013-04-25 17:38:00,
2013-04-25 13:39:00,67.2,65.3,30.30,North,359,0.0,9.8,94,0.00,,SKC,0.00,VWS V14.01,2013-04-25 17:39:00,
2013-04-25 13:40:00,67.3,65.6,30.30,North,359,0.0,9.8,94,0.00,,SKC,0.00,VWS V14.01,2013-04-25 17:40:00,
2013-04-25 13:42:00,67.8,66.2,30.30,North,359,0.0,9.8,94,0.00,,SKC,0.00,VWS V14.01,2013-04-25 17:42:00,
2013-04-25 13:43:00,68.0,66.1,30.30,South,191,0.0,9.8,94,0.00,,SKC,0.00,VWS V14.01,2013-04-25 17:43:00,
2013-04-25 13:44:00,67.9,65.4,30.30,South,191,0.0,9.8,92,0.00,,SKC,0.00,VWS V14.01,2013-04-25 17:44:00,
2013-04-25 13:46:00,67.8,65.4,30.30,South,191,0.0,9.8,92,0.00,,SKC,0.00,VWS V14.01,2013-04-25 17:46:00,
2013-04-25 13:47:00,68.0,65.9,30.30,South,191,0.0,9.8,93,0.00,,SKC,0.00,VWS V14.01,2013-04-25 17:47:00,
2013-04-25 13:48:00,68.0,65.9,30.30,South,191,0.0,9.8,93,0.00,,SKC,0.00,VWS V14.01,2013-04-25 17:48:00,
2013-04-25 13:49:00,67.9,65.4,30.30,South,191,0.0,9.8,92,0.00,,SKC,0.00,VWS V14.01,2013-04-25 17:49:00,
2013-04-25 13:51:00,67.7,65.4,30.30,South,191,0.0,9.8,92,0.00,,SKC,0.00,VWS V14.01,2013-04-25 17:51:00,
2013-04-25 13:52:00,67.7,65.6,30.31,South,191,0.0,9.8,93,0.00,,SKC,0.00,VWS V14.01,2013-04-25 17:52:00,
2013-04-25 13:53:00,67.7,65.7,30.31,South,191,0.0,9.8,93,0.00,,SKC,0.00,VWS V14.01,2013-04-25 17:53:00,
2013-04-25 13:54:00,67.8,65.9,30.30,South,191,0.0,9.8,94,0.00,,SKC,0.00,VWS V14.01,2013-04-25 17:54:00,
2013-04-25 13:56:00,67.9,66.0,30.30,South,191,0.0,9.8,94,0.00,,SKC,0.00,VWS V14.01,2013-04-25 17:56:00,
2013-04-25 13:58:00,68.1,66.3,30.30,South,191,0.0,9.8,94,0.00,,SKC,0.00,VWS V14.01,2013-04-25 17:58:00,
2013-04-25 13:59:00,68.0,65.5,30.30,South,191,0.0,9.8,92,0.00,,SKC,0.00,VWS V14.01,2013-04-25 17:59:00,
2013-04-25 14:01:00,67.7,65.3,30.30,South,191,0.0,9.8,92,0.00,,SKC,0.00,VWS V14.01,2013-04-25 18:01:00,
2013-04-25 14:03:00,67.7,65.6,30.30,South,191,0.0,9.8,93,0.00,,SKC,0.00,VWS V14.01,2013-04-25 18:03:00,
2013-04-25 14:04:00,67.5,65.5,30.30,South,191,0.0,9.8,93,0.00,,SKC,0.00,VWS V14.01,2013-04-25 18:04:00,
2013-04-25 14:06:00,67.5,65.5,30.30,South,191,0.0,9.8,93,0.00,,SKC,0.00,VWS V14.01,2013-04-25 18:06:00,
2013-04-25 14:08:00,67.7,65.8,30.30,South,191,0.0,9.8,94,0.00,,SKC,0.00,VWS V14.01,2013-04-25 18:08:00,
2013-04-25 14:09:00,67.9,66.1,30.30,SSE,152,3.5,9.8,94,0.00,,SKC,0.00,VWS V14.01,2013-04-25 18:09:00,
2013-04-25 14:11:00,68.3,66.1,30.30,SSE,150,0.0,9.8,93,0.00,,SKC,0.00,VWS V14.01,2013-04-25 18:11:00,
2013-04-25 14:13:00,68.4,66.0,30.30,SSE,150,0.0,9.8,92,0.00,,SKC,0.00,VWS V14.01,2013-04-25 18:13:00,
2013-04-25 14:14:00,68.7,66.3,30.30,SSE,150,0.0,9.8,92,0.00,,SKC,0.00,VWS V14.01,2013-04-25 18:14:00,
2013-04-25 14:16:00,69.2,66.9,30.30,SSE,150,0.0,9.8,92,0.00,,SKC,0.00,VWS V14.01,2013-04-25 18:16:00,
2013-04-25 14:18:00,69.2,65.9,30.29,SSE,150,0.0,9.8,89,0.00,,SKC,0.00,VWS V14.01,2013-04-25 18:18:00,
2013-04-25 14:19:00,69.0,65.9,30.29,SSE,150,0.0,9.8,90,0.00,,SKC,0.00,VWS V14.01,2013-04-25 18:19:00,
2013-04-25 14:22:00,68.7,65.5,30.29,SSE,150,0.0,9.8,89,0.00,,SKC,0.00,VWS V14.01,2013-04-25 18:22:00,
2013-04-25 14:23:00,68.4,65.6,30.29,SSE,150,0.0,9.8,91,0.00,,SKC,0.00,VWS V14.01,2013-04-25 18:23:00,
2013-04-25 14:24:00,68.5,65.9,30.29,SSE,150,0.0,9.8,91,0.00,,SKC,0.00,VWS V14.01,2013-04-25 18:24:00,
2013-04-25 14:25:00,68.4,65.8,30.29,SSE,150,0.0,9.8,91,0.00,,SKC,0.00,VWS V14.01,2013-04-25 18:25:00,
2013-04-25 14:27:00,68.4,65.9,30.29,SSE,150,0.0,9.8,92,0.00,,SKC,0.00,VWS V14.01,2013-04-25 18:27:00,
2013-04-25 14:28:00,68.4,65.8,30.28,SSE,150,0.0,9.8,91,0.00,,SKC,0.00,VWS V14.01,2013-04-25 18:28:00,
2013-04-25 14:29:00,68.3,65.9,30.28,SSE,150,0.0,9.8,92,0.00,,SKC,0.00,VWS V14.01,2013-04-25 18:29:00,
2013-04-25 14:30:00,68.4,66.2,30.29,SSE,150,0.0,9.8,93,0.00,,SKC,0.00,VWS V14.01,2013-04-25 18:30:00,
2013-04-25 14:32:00,69.0,66.7,30.29,SSE,150,0.0,9.8,93,0.00,,SKC,0.00,VWS V14.01,2013-04-25 18:32:00,
2013-04-25 14:33:00,68.9,66.2,30.29,SSE,150,0.0,9.8,91,0.00,,SKC,0.00,VWS V14.01,2013-04-25 18:33:00,
2013-04-25 14:34:00,68.8,65.9,30.29,SSE,150,0.0,9.8,90,0.00,,SKC,0.00,VWS V14.01,2013-04-25 18:34:00,
2013-04-25 14:35:00,68.9,66.1,30.29,SSE,150,0.0,9.8,91,0.00,,SKC,0.00,VWS V14.01,2013-04-25 18:35:00,
2013-04-25 14:38:00,69.2,66.6,30.28,SSE,150,0.0,9.8,91,0.00,,SKC,0.00,VWS V14.01,2013-04-25 18:38:00,
2013-04-25 14:39:00,69.3,66.2,30.28,SSE,150,0.0,9.8,90,0.00,,SKC,0.00,VWS V14.01,2013-04-25 18:39:00,
2013-04-25 14:40:00,69.2,66.1,30.28,SSE,150,0.0,9.8,90,0.00,,SKC,0.00,VWS V14.01,2013-04-25 18:40:00,
2013-04-25 14:43:00,69.3,66.4,30.28,SSE,150,0.0,9.8,91,0.00,,SKC,0.00,VWS V14.01,2013-04-25 18:43:00,
2013-04-25 14:44:00,69.3,66.5,30.28,SSE,150,0.0,9.8,91,0.00,,SKC,0.00,VWS V14.01,2013-04-25 18:44:00,
2013-04-25 14:45:00,69.2,66.4,30.28,SSE,150,0.0,9.8,91,0.00,,SKC,0.00,VWS V14.01,2013-04-25 18:45:00,
2013-04-25 14:48:00,69.1,66.4,30.28,SSE,150,0.0,9.8,91,0.00,,SKC,0.00,VWS V14.01,2013-04-25 18:48:00,
2013-04-25 14:49:00,69.3,66.8,30.28,South,177,0.0,9.8,92,0.00,,SKC,0.00,VWS V14.01,2013-04-25 18:49:00,
2013-04-25 14:50:00,69.4,66.9,30.28,South,177,0.0,9.8,92,0.00,,SKC,0.00,VWS V14.01,2013-04-25 18:50:00,
2013-04-25 14:54:00,69.8,66.5,30.27,South,177,0.0,9.8,90,0.00,,SKC,0.00,VWS V14.01,2013-04-25 18:54:00,
2013-04-25 14:55:00,69.9,67.1,30.27,South,177,0.0,9.8,91,0.00,,SKC,0.00,VWS V14.01,2013-04-25 18:55:00,
2013-04-25 14:59:00,70.0,67.0,30.28,South,177,0.0,9.8,90,0.00,,SKC,0.00,VWS V14.01,2013-04-25 18:59:00,
2013-04-25 15:00:00,70.2,67.3,30.28,South,177,0.0,9.8,90,0.00,,SKC,0.00,VWS V14.01,2013-04-25 19:00:00,
2013-04-25 15:01:00,70.3,67.4,30.28,South,177,0.0,9.8,91,0.00,,SKC,0.00,VWS V14.01,2013-04-25 19:01:00,
2013-04-25 15:04:00,70.2,66.9,30.27,South,177,0.0,9.8,89,0.00,,SKC,0.00,VWS V14.01,2013-04-25 19:04:00,
2013-04-25 15:05:00,70.3,67.0,30.27,South,177,0.0,9.8,90,0.00,,SKC,0.00,VWS V14.01,2013-04-25 19:05:00,
2013-04-25 15:06:00,70.4,67.2,30.27,South,177,0.0,9.8,90,0.00,,SKC,0.00,VWS V14.01,2013-04-25 19:06:00,
2013-04-25 15:09:00,70.8,67.6,30.27,North,359,0.0,9.8,90,0.00,,SKC,0.00,VWS V14.01,2013-04-25 19:09:00,
2013-04-25 15:10:00,71.0,67.8,30.27,North,359,0.0,9.8,90,0.00,,SKC,0.00,VWS V14.01,2013-04-25 19:10:00,
2013-04-25 15:11:00,71.2,68.0,30.27,North,359,0.0,9.8,90,0.00,,SKC,0.00,VWS V14.01,2013-04-25 19:11:00,
2013-04-25 15:14:00,71.5,67.2,30.27,North,359,0.0,9.8,86,0.00,,SKC,0.00,VWS V14.01,2013-04-25 19:14:00,
2013-04-25 15:15:00,71.5,67.2,30.27,North,359,0.0,9.8,86,0.00,,SKC,0.00,VWS V14.01,2013-04-25 19:15:00,
2013-04-25 15:16:00,71.5,67.5,30.27,North,359,0.0,9.8,87,0.00,,SKC,0.00,VWS V14.01,2013-04-25 19:16:00,
2013-04-25 15:19:00,71.9,67.8,30.27,North,359,0.0,9.8,87,0.00,,SKC,0.00,VWS V14.01,2013-04-25 19:19:00,
2013-04-25 15:20:00,71.6,66.8,30.27,North,359,0.0,9.8,85,0.00,,SKC,0.00,VWS V14.01,2013-04-25 19:20:00,
2013-04-25 15:21:00,71.5,66.9,30.27,North,359,0.0,9.8,85,0.00,,SKC,0.00,VWS V14.01,2013-04-25 19:21:00,
2013-04-25 15:24:00,71.3,67.1,30.26,North,359,0.0,9.8,87,0.00,,SKC,0.00,VWS V14.01,2013-04-25 19:24:00,
2013-04-25 15:25:00,71.1,66.8,30.27,North,359,0.0,9.8,86,0.00,,SKC,0.00,VWS V14.01,2013-04-25 19:25:00,
2013-04-25 15:26:00,71.1,67.2,30.27,North,359,0.0,9.8,88,0.00,,SKC,0.00,VWS V14.01,2013-04-25 19:26:00,
2013-04-25 15:29:00,71.3,67.4,30.27,North,359,0.0,9.8,88,0.00,,SKC,0.00,VWS V14.01,2013-04-25 19:29:00,
2013-04-25 15:30:00,71.3,67.2,30.27,North,359,0.0,9.8,87,0.00,,SKC,0.00,VWS V14.01,2013-04-25 19:30:00,
2013-04-25 15:31:00,71.5,67.7,30.27,North,359,0.0,9.8,88,0.00,,SKC,0.00,VWS V14.01,2013-04-25 19:31:00,
2013-04-25 15:32:00,71.5,67.6,30.27,North,359,0.0,9.8,88,0.00,,SKC,0.00,VWS V14.01,2013-04-25 19:32:00,
2013-04-25 15:34:00,71.2,67.4,30.27,North,359,0.0,9.8,88,0.00,,SKC,0.00,VWS V14.01,2013-04-25 19:34:00,
2013-04-25 15:36:00,71.1,67.0,30.26,North,359,0.0,9.8,87,0.00,,SKC,0.00,VWS V14.01,2013-04-25 19:36:00,
2013-04-25 15:37:00,71.1,67.1,30.27,North,359,0.0,9.8,87,0.00,,SKC,0.00,VWS V14.01,2013-04-25 19:37:00,
2013-04-25 15:40:00,71.4,67.2,30.26,North,359,0.0,9.8,86,0.00,,SKC,0.00,VWS V14.01,2013-04-25 19:40:00,
2013-04-25 15:41:00,71.5,67.5,30.26,North,359,0.0,9.8,87,0.00,,SKC,0.00,VWS V14.01,2013-04-25 19:41:00,
2013-04-25 15:42:00,71.5,67.6,30.26,North,359,0.0,9.8,88,0.00,,SKC,0.00,VWS V14.01,2013-04-25 19:42:00,
2013-04-25 15:45:00,71.4,66.9,30.26,North,359,0.0,9.8,86,0.00,,SKC,0.00,VWS V14.01,2013-04-25 19:45:00,
2013-04-25 15:46:00,71.4,67.3,30.26,North,359,0.0,9.8,87,0.00,,SKC,0.00,VWS V14.01,2013-04-25 19:46:00,
2013-04-25 15:47:00,71.5,67.6,30.26,North,359,0.0,9.8,87,0.00,,SKC,0.00,VWS V14.01,2013-04-25 19:47:00,
2013-04-25 15:48:00,71.4,67.4,30.26,North,359,0.0,9.8,87,0.00,,SKC,0.00,VWS V14.01,2013-04-25 19:48:00,
2013-04-25 15:50:00,71.7,68.0,30.26,North,359,0.0,9.8,88,0.00,,SKC,0.00,VWS V14.01,2013-04-25 19:50:00,
2013-04-25 15:51:00,71.7,67.6,30.25,North,359,0.0,9.8,87,0.00,,SKC,0.00,VWS V14.01,2013-04-25 19:51:00,
2013-04-25 15:52:00,71.6,67.3,30.25,North,359,0.0,9.8,86,0.00,,SKC,0.00,VWS V14.01,2013-04-25 19:52:00,
2013-04-25 15:53:00,71.5,67.1,30.25,North,359,0.0,9.8,86,0.00,,SKC,0.00,VWS V14.01,2013-04-25 19:53:00,
2013-04-25 15:56:00,71.8,67.6,30.25,North,359,0.0,9.8,86,0.00,,SKC,0.00,VWS V14.01,2013-04-25 19:56:00,
2013-04-25 15:57:00,71.9,67.6,30.26,North,359,0.0,9.8,86,0.00,,SKC,0.00,VWS V14.01,2013-04-25 19:57:00,
2013-04-25 15:58:00,72.0,67.8,30.26,North,359,0.0,9.8,86,0.00,,SKC,0.00,VWS V14.01,2013-04-25 19:58:00,
2013-04-25 16:01:00,72.3,67.6,30.26,North,359,0.0,9.8,85,0.00,,SKC,0.00,VWS V14.01,2013-04-25 20:01:00,
2013-04-25 16:02:00,72.3,67.6,30.25,North,359,0.0,9.8,85,0.00,,SKC,0.00,VWS V14.01,2013-04-25 20:02:00,
2013-04-25 16:03:00,72.2,67.1,30.25,North,359,0.0,9.8,84,0.00,,SKC,0.00,VWS V14.01,2013-04-25 20:03:00,
2013-04-25 16:06:00,72.1,67.2,30.25,North,359,0.0,9.8,85,0.00,,SKC,0.00,VWS V14.01,2013-04-25 20:06:00,
2013-04-25 16:07:00,72.1,67.3,30.25,North,359,0.0,9.8,85,0.00,,SKC,0.00,VWS V14.01,2013-04-25 20:07:00,
2013-04-25 16:08:00,72.3,67.8,30.25,North,359,0.0,9.8,86,0.00,,SKC,0.00,VWS V14.01,2013-04-25 20:08:00,
2013-04-25 16:11:00,73.0,68.6,30.25,North,359,0.0,9.8,86,0.00,,SKC,0.00,VWS V14.01,2013-04-25 20:11:00,
2013-04-25 16:12:00,73.1,68.7,30.25,North,359,0.0,9.8,86,0.00,,SKC,0.00,VWS V14.01,2013-04-25 20:12:00,
2013-04-25 16:13:00,73.2,68.2,30.25,North,359,0.0,9.8,84,0.00,,SKC,0.00,VWS V14.01,2013-04-25 20:13:00,
2013-04-25 16:16:00,73.6,67.7,30.25,North,359,0.0,9.8,82,0.00,,SKC,0.00,VWS V14.01,2013-04-25 20:16:00,
2013-04-25 16:17:00,73.6,67.7,30.25,North,359,0.0,9.8,82,0.00,,SKC,0.00,VWS V14.01,2013-04-25 20:17:00,
2013-04-25 16:18:00,73.4,67.2,30.24,North,359,0.0,9.8,81,0.00,,SKC,0.00,VWS V14.01,2013-04-25 20:18:00,
2013-04-25 16:21:00,73.1,67.2,30.25,North,359,0.0,9.8,82,0.00,,SKC,0.00,VWS V14.01,2013-04-25 20:21:00,
2013-04-25 16:22:00,73.1,67.1,30.25,North,359,0.0,9.8,82,0.00,,SKC,0.00,VWS V14.01,2013-04-25 20:22:00,
2013-04-25 16:23:00,73.3,67.6,30.24,North,359,0.0,9.8,82,0.00,,SKC,0.00,VWS V14.01,2013-04-25 20:23:00,
2013-04-25 16:26:00,73.6,67.2,30.24,North,359,0.0,9.8,80,0.00,,SKC,0.00,VWS V14.01,2013-04-25 20:26:00,
2013-04-25 16:27:00,73.7,67.4,30.24,North,359,0.0,9.8,81,0.00,,SKC,0.00,VWS V14.01,2013-04-25 20:27:00,
2013-04-25 16:28:00,73.7,66.6,30.24,North,359,0.0,9.8,79,0.00,,SKC,0.00,VWS V14.01,2013-04-25 20:28:00,
2013-04-25 16:29:00,73.6,66.8,30.24,North,359,0.0,9.8,79,0.00,,SKC,0.00,VWS V14.01,2013-04-25 20:29:00,
2013-04-25 16:31:00,73.6,66.7,30.24,North,359,0.0,9.8,79,0.00,,SKC,0.00,VWS V14.01,2013-04-25 20:31:00,
2013-04-25 16:32:00,73.4,66.6,30.24,North,359,0.0,9.8,79,0.00,,SKC,0.00,VWS V14.01,2013-04-25 20:32:00,
2013-04-25 16:33:00,73.4,67.1,30.24,North,359,0.0,9.8,81,0.00,,SKC,0.00,VWS V14.01,2013-04-25 20:33:00,
2013-04-25 16:34:00,73.4,67.1,30.24,North,359,0.0,9.8,81,0.00,,SKC,0.00,VWS V14.01,2013-04-25 20:34:00,
2013-04-25 16:37:00,73.2,66.2,30.24,North,359,0.0,9.8,79,0.00,,SKC,0.00,VWS V14.01,2013-04-25 20:37:00,
2013-04-25 16:38:00,73.1,66.5,30.24,North,359,0.0,9.8,80,0.00,,SKC,0.00,VWS V14.01,2013-04-25 20:38:00,
2013-04-25 16:39:00,73.0,66.8,30.23,North,359,0.0,9.8,81,0.00,,SKC,0.00,VWS V14.01,2013-04-25 20:39:00,
2013-04-25 16:42:00,73.4,67.3,30.24,North,359,0.0,9.8,81,0.00,,SKC,0.00,VWS V14.01,2013-04-25 20:42:00,
2013-04-25 16:43:00,73.3,66.7,30.24,North,359,0.0,9.8,80,0.00,,SKC,0.00,VWS V14.01,2013-04-25 20:43:00,
2013-04-25 16:44:00,73.3,66.4,30.24,North,359,0.0,9.8,79,0.00,,SKC,0.00,VWS V14.01,2013-04-25 20:44:00,
2013-04-25 16:47:00,73.4,66.2,30.24,North,359,0.0,9.8,78,0.00,,SKC,0.00,VWS V14.01,2013-04-25 20:47:00,
2013-04-25 16:48:00,73.6,66.9,30.23,North,359,0.0,9.8,80,0.00,,SKC,0.00,VWS V14.01,2013-04-25 20:48:00,
2013-04-25 16:49:00,73.7,67.0,30.24,North,359,0.0,9.8,80,0.00,,SKC,0.00,VWS V14.01,2013-04-25 20:49:00,
2013-04-25 16:52:00,73.7,66.2,30.24,North,359,0.0,9.8,77,0.00,,SKC,0.00,VWS V14.01,2013-04-25 20:52:00,
2013-04-25 16:53:00,73.7,66.5,30.24,North,359,0.0,9.8,78,0.00,,SKC,0.00,VWS V14.01,2013-04-25 20:53:00,
2013-04-25 16:54:00,73.7,66.3,30.24,North,359,0.0,9.8,78,0.00,,SKC,0.00,VWS V14.01,2013-04-25 20:54:00,
2013-04-25 16:57:00,74.3,66.9,30.24,South,179,2.8,9.8,78,0.00,,SKC,0.00,VWS V14.01,2013-04-25 20:57:00,
2013-04-25 16:58:00,74.6,67.6,30.23,South,179,0.0,9.8,79,0.00,,SKC,0.00,VWS V14.01,2013-04-25 20:58:00,
2013-04-25 16:59:00,74.6,67.2,30.24,South,179,0.0,9.8,78,0.00,,SKC,0.00,VWS V14.01,2013-04-25 20:59:00,
2013-04-25 17:00:00,74.6,66.8,30.24,South,179,0.0,9.8,77,0.00,,SKC,0.00,VWS V14.01,2013-04-25 21:00:00,
2013-04-25 17:02:00,74.7,67.2,30.24,South,179,0.0,9.8,77,0.00,,SKC,0.00,VWS V14.01,2013-04-25 21:02:00,
2013-04-25 17:03:00,74.6,65.7,30.24,South,179,0.0,9.8,74,0.00,,SKC,0.00,VWS V14.01,2013-04-25 21:03:00,
2013-04-25 17:04:00,74.7,66.3,30.24,South,179,0.0,9.8,75,0.00,,SKC,0.00,VWS V14.01,2013-04-25 21:04:00,
2013-04-25 17:05:00,74.6,65.9,30.24,South,179,0.0,9.8,74,0.00,,SKC,0.00,VWS V14.01,2013-04-25 21:05:00,
2013-04-25 17:07:00,74.1,65.7,30.24,South,179,0.0,9.8,75,0.00,,SKC,0.00,VWS V14.01,2013-04-25 21:07:00,
2013-04-25 17:09:00,74.0,65.8,30.23,South,179,0.0,9.8,76,0.00,,SKC,0.00,VWS V14.01,2013-04-25 21:09:00,
2013-04-25 17:10:00,74.0,66.0,30.23,South,179,0.0,9.8,76,0.00,,SKC,0.00,VWS V14.01,2013-04-25 21:10:00,
2013-04-25 17:12:00,73.9,66.2,30.23,North,359,0.0,9.8,77,0.00,,SKC,0.00,VWS V14.01,2013-04-25 21:12:00,
2013-04-25 17:13:00,73.9,66.0,30.23,North,359,0.0,9.8,76,0.00,,SKC,0.00,VWS V14.01,2013-04-25 21:13:00,
2013-04-25 17:14:00,73.8,65.5,30.23,North,359,0.0,9.8,75,0.00,,SKC,0.00,VWS V14.01,2013-04-25 21:14:00,
2013-04-25 17:15:00,73.9,66.2,30.23,North,359,0.0,9.8,76,0.00,,SKC,0.00,VWS V14.01,2013-04-25 21:15:00,
2013-04-25 17:17:00,73.8,65.1,30.23,North,359,0.0,9.8,74,0.00,,SKC,0.00,VWS V14.01,2013-04-25 21:17:00,
2013-04-25 17:18:00,73.9,65.7,30.23,North,359,0.0,9.8,75,0.00,,SKC,0.00,VWS V14.01,2013-04-25 21:18:00,
2013-04-25 17:19:00,73.9,65.9,30.23,North,359,0.0,9.8,76,0.00,,SKC,0.00,VWS V14.01,2013-04-25 21:19:00,
2013-04-25 17:20:00,73.8,64.8,30.23,North,359,0.0,9.8,74,0.00,,SKC,0.00,VWS V14.01,2013-04-25 21:20:00,
2013-04-25 17:22:00,73.9,65.8,30.23,North,359,0.0,9.8,76,0.00,,SKC,0.00,VWS V14.01,2013-04-25 21:22:00,
2013-04-25 17:23:00,73.9,65.8,30.23,North,359,0.0,9.8,76,0.00,,SKC,0.00,VWS V14.01,2013-04-25 21:23:00,
2013-04-25 17:24:00,74.0,65.9,30.23,North,359,0.0,9.8,76,0.00,,SKC,0.00,VWS V14.01,2013-04-25 21:24:00,
2013-04-25 17:25:00,74.1,66.1,30.23,North,359,0.0,9.8,76,0.00,,SKC,0.00,VWS V14.01,2013-04-25 21:25:00,
2013-04-25 17:27:00,74.3,65.4,30.23,North,359,0.0,9.8,74,0.00,,SKC,0.00,VWS V14.01,2013-04-25 21:27:00,
2013-04-25 17:28:00,74.2,63.9,30.22,North,359,0.0,9.8,70,0.00,,SKC,0.00,VWS V14.01,2013-04-25 21:28:00,
2013-04-25 17:29:00,74.2,63.9,30.23,North,359,0.0,9.8,70,0.00,,SKC,0.00,VWS V14.01,2013-04-25 21:29:00,
2013-04-25 17:30:00,74.1,63.7,30.23,North,359,0.0,9.8,70,0.00,,SKC,0.00,VWS V14.01,2013-04-25 21:30:00,
2013-04-25 17:32:00,74.2,63.9,30.23,North,359,0.0,9.8,70,0.00,,SKC,0.00,VWS V14.01,2013-04-25 21:32:00,
2013-04-25 17:33:00,74.1,64.2,30.23,North,359,0.0,9.8,71,0.00,,SKC,0.00,VWS V14.01,2013-04-25 21:33:00,
2013-04-25 17:34:00,74.3,64.9,30.23,North,359,0.0,9.8,72,0.00,,SKC,0.00,VWS V14.01,2013-04-25 21:34:00,
2013-04-25 17:35:00,74.3,64.7,30.22,North,359,0.0,9.8,72,0.00,,SKC,0.00,VWS V14.01,2013-04-25 21:35:00,
2013-04-25 17:38:00,74.1,63.5,30.23,North,359,0.0,9.8,69,0.00,,SKC,0.00,VWS V14.01,2013-04-25 21:38:00,
2013-04-25 17:39:00,73.8,63.3,30.23,North,359,0.0,9.8,70,0.00,,SKC,0.00,VWS V14.01,2013-04-25 21:39:00,
2013-04-25 17:40:00,73.7,63.1,30.23,North,359,0.0,9.8,70,0.00,,SKC,0.00,VWS V14.01,2013-04-25 21:40:00,
2013-04-25 17:43:00,73.8,64.0,30.23,North,359,0.0,9.8,71,0.00,,SKC,0.00,VWS V14.01,2013-04-25 21:43:00,
2013-04-25 17:44:00,73.8,63.3,30.23,North,359,0.0,9.8,70,0.00,,SKC,0.00,VWS V14.01,2013-04-25 21:44:00,
2013-04-25 17:45:00,73.8,63.4,30.23,North,359,0.0,9.8,70,0.00,,SKC,0.00,VWS V14.01,2013-04-25 21:45:00,
2013-04-25 17:48:00,73.8,63.7,30.23,North,359,0.0,9.8,71,0.00,,SKC,0.00,VWS V14.01,2013-04-25 21:48:00,
2013-04-25 17:49:00,73.8,63.2,30.23,North,359,0.0,9.8,70,0.00,,SKC,0.00,VWS V14.01,2013-04-25 21:49:00,
2013-04-25 17:50:00,73.8,63.4,30.23,North,359,0.0,9.8,70,0.00,,SKC,0.00,VWS V14.01,2013-04-25 21:50:00,
2013-04-25 17:53:00,73.8,63.1,30.23,North,359,0.0,9.8,69,0.00,,SKC,0.00,VWS V14.01,2013-04-25 21:53:00,
2013-04-25 17:54:00,74.0,63.2,30.23,North,359,0.0,9.8,69,0.00,,SKC,0.00,VWS V14.01,2013-04-25 21:54:00,
2013-04-25 17:55:00,74.0,62.9,30.23,North,359,0.0,9.8,68,0.00,,SKC,0.00,VWS V14.01,2013-04-25 21:55:00,
2013-04-25 17:56:00,73.8,62.7,30.23,North,359,0.0,9.8,68,0.00,,SKC,0.00,VWS V14.01,2013-04-25 21:56:00,
2013-04-25 17:58:00,73.7,62.5,30.23,North,359,0.0,9.8,68,0.00,,SKC,0.00,VWS V14.01,2013-04-25 21:58:00,
2013-04-25 17:59:00,73.8,63.0,30.23,North,359,0.0,9.8,69,0.00,,SKC,0.00,VWS V14.01,2013-04-25 21:59:00,
2013-04-25 18:00:00,73.9,63.3,30.24,North,359,0.0,9.8,69,0.00,,SKC,0.00,VWS V14.01,2013-04-25 22:00:00,
2013-04-25 18:01:00,73.8,63.2,30.24,North,359,0.0,9.8,69,0.00,,SKC,0.00,VWS V14.01,2013-04-25 22:01:00,
2013-04-25 18:03:00,73.8,61.3,30.23,North,359,0.0,9.8,65,0.00,,SKC,0.00,VWS V14.01,2013-04-25 22:03:00,
2013-04-25 18:04:00,73.9,62.0,30.23,North,359,0.0,9.8,66,0.00,,SKC,0.00,VWS V14.01,2013-04-25 22:04:00,
2013-04-25 18:05:00,73.8,61.7,30.23,North,359,0.0,9.8,66,0.00,,SKC,0.00,VWS V14.01,2013-04-25 22:05:00,
2013-04-25 18:06:00,73.8,62.4,30.23,South,176,0.0,9.8,67,0.00,,SKC,0.00,VWS V14.01,2013-04-25 22:06:00,
2013-04-25 18:08:00,74.2,62.8,30.23,South,176,0.0,9.8,68,0.00,,SKC,0.00,VWS V14.01,2013-04-25 22:08:00,
2013-04-25 18:10:00,74.2,61.4,30.23,SE,145,6.3,9.8,64,0.00,,SKC,0.00,VWS V14.01,2013-04-25 22:10:00,
2013-04-25 18:11:00,74.3,61.4,30.23,SSE,150,0.0,9.8,64,0.00,,SKC,0.00,VWS V14.01,2013-04-25 22:11:00,
2013-04-25 18:14:00,74.0,59.5,30.23,SSE,150,0.0,9.8,61,0.00,,SKC,0.00,VWS V14.01,2013-04-25 22:14:00,
2013-04-25 18:15:00,74.0,60.0,30.23,SSE,150,0.0,9.8,62,0.00,,SKC,0.00,VWS V14.01,2013-04-25 22:15:00,
2013-04-25 18:16:00,74.0,60.4,30.23,SSE,150,0.0,9.8,63,0.00,,SKC,0.00,VWS V14.01,2013-04-25 22:16:00,
2013-04-25 18:19:00,74.3,61.0,30.23,SSE,150,0.0,9.8,63,0.00,,SKC,0.00,VWS V14.01,2013-04-25 22:19:00,
2013-04-25 18:20:00,74.2,60.4,30.23,SSE,150,0.0,9.8,62,0.00,,SKC,0.00,VWS V14.01,2013-04-25 22:20:00,
2013-04-25 18:21:00,74.3,60.9,30.23,SSE,150,0.0,9.8,63,0.00,,SKC,0.00,VWS V14.01,2013-04-25 22:21:00,
2013-04-25 18:22:00,74.4,61.3,30.23,SSE,150,0.0,9.8,64,0.00,,SKC,0.00,VWS V14.01,2013-04-25 22:22:00,
2013-04-25 18:24:00,74.6,61.5,30.23,SSE,150,0.0,9.8,64,0.00,,SKC,0.00,VWS V14.01,2013-04-25 22:24:00,
2013-04-25 18:25:00,74.5,60.5,30.23,SSE,150,0.0,9.8,61,0.00,,SKC,0.00,VWS V14.01,2013-04-25 22:25:00,
2013-04-25 18:26:00,74.6,61.0,30.23,SSE,150,0.0,9.8,62,0.00,,SKC,0.00,VWS V14.01,2013-04-25 22:26:00,
2013-04-25 18:27:00,74.5,61.0,30.23,SSE,150,0.0,9.8,63,0.00,,SKC,0.00,VWS V14.01,2013-04-25 22:27:00,
2013-04-25 18:29:00,74.6,60.6,30.23,SSE,150,0.0,9.8,62,0.00,,SKC,0.00,VWS V14.01,2013-04-25 22:29:00,
2013-04-25 18:30:00,74.4,59.8,30.23,SSE,150,0.0,9.8,60,0.00,,SKC,0.00,VWS V14.01,2013-04-25 22:30:00,
2013-04-25 18:31:00,74.4,59.9,30.23,SSE,150,0.0,9.8,61,0.00,,SKC,0.00,VWS V14.01,2013-04-25 22:31:00,
2013-04-25 18:32:00,74.3,60.3,30.23,SSE,150,0.0,9.8,62,0.00,,SKC,0.00,VWS V14.01,2013-04-25 22:32:00,
2013-04-25 18:34:00,74.3,59.3,30.23,SSE,150,0.0,9.8,60,0.00,,SKC,0.00,VWS V14.01,2013-04-25 22:34:00,
2013-04-25 18:35:00,74.3,60.3,30.23,SSE,150,0.0,9.8,62,0.00,,SKC,0.00,VWS V14.01,2013-04-25 22:35:00,
2013-04-25 18:36:00,74.3,60.5,30.23,SSE,150,0.0,9.8,62,0.00,,SKC,0.00,VWS V14.01,2013-04-25 22:36:00,
2013-04-25 18:37:00,74.3,60.7,30.24,SSE,150,0.0,9.8,62,0.00,,SKC,0.00,VWS V14.01,2013-04-25 22:37:00,
2013-04-25 18:39:00,74.2,59.3,30.23,SSE,150,0.0,9.8,60,0.00,,SKC,0.00,VWS V14.01,2013-04-25 22:39:00,
2013-04-25 18:41:00,74.0,58.9,30.24,SSE,150,0.0,9.8,59,0.00,,SKC,0.00,VWS V14.01,2013-04-25 22:41:00,
2013-04-25 18:42:00,73.8,58.5,30.24,SSE,150,0.0,9.8,59,0.00,,SKC,0.00,VWS V14.01,2013-04-25 22:42:00,
2013-04-25 18:44:00,73.9,59.9,30.24,SSE,150,0.0,9.8,62,0.00,,SKC,0.00,VWS V14.01,2013-04-25 22:44:00,
2013-04-25 18:46:00,73.7,58.8,30.24,SSE,150,0.0,9.8,60,0.00,,SKC,0.00,VWS V14.01,2013-04-25 22:46:00,
2013-04-25 18:47:00,73.8,59.0,30.24,SSE,150,0.0,9.8,60,0.00,,SKC,0.00,VWS V14.01,2013-04-25 22:47:00,
2013-04-25 18:49:00,73.9,59.9,30.24,SSE,150,0.0,9.8,62,0.00,,SKC,0.00,VWS V14.01,2013-04-25 22:49:00,
2013-04-25 18:51:00,74.0,60.0,30.24,SSE,150,0.0,9.8,62,0.00,,SKC,0.00,VWS V14.01,2013-04-25 22:51:00,
2013-04-25 18:52:00,73.9,59.3,30.24,SSE,150,0.0,9.8,60,0.00,,SKC,0.00,VWS V14.01,2013-04-25 22:52:00,
2013-04-25 18:54:00,73.9,59.5,30.24,SSE,150,0.0,9.8,61,0.00,,SKC,0.00,VWS V14.01,2013-04-25 22:54:00,
2013-04-25 18:56:00,73.8,59.3,30.24,SSE,150,0.0,9.8,60,0.00,,SKC,0.00,VWS V14.01,2013-04-25 22:56:00,
2013-04-25 18:57:00,73.6,59.0,30.23,SSE,150,0.0,9.8,60,0.00,,SKC,0.00,VWS V14.01,2013-04-25 22:57:00,
2013-04-25 19:00:00,73.6,59.0,30.23,SSE,150,0.0,9.8,60,0.00,,SKC,0.00,VWS V14.01,2013-04-25 23:00:00,
2013-04-25 19:01:00,73.6,59.5,30.23,SSE,150,0.0,9.8,61,0.00,,SKC,0.00,VWS V14.01,2013-04-25 23:01:00,
2013-04-25 19:02:00,73.5,59.5,30.24,SSE,150,0.0,9.8,62,0.00,,SKC,0.00,VWS V14.01,2013-04-25 23:02:00,
2013-04-25 19:05:00,73.3,59.3,30.24,SSE,150,0.0,9.8,62,0.00,,SKC,0.00,VWS V14.01,2013-04-25 23:05:00,
2013-04-25 19:06:00,73.3,59.6,30.23,SSE,150,0.0,9.8,62,0.00,,SKC,0.00,VWS V14.01,2013-04-25 23:06:00,
2013-04-25 19:07:00,73.3,59.8,30.23,SSE,150,0.0,9.8,63,0.00,,SKC,0.00,VWS V14.01,2013-04-25 23:07:00,
2013-04-25 19:08:00,73.4,60.4,30.23,SSE,150,0.0,9.8,64,0.00,,SKC,0.00,VWS V14.01,2013-04-25 23:08:00,
2013-04-25 19:10:00,73.0,59.3,30.23,SSE,150,0.0,9.8,62,0.00,,SKC,0.00,VWS V14.01,2013-04-25 23:10:00,
2013-04-25 19:11:00,72.9,59.8,30.23,SSE,150,0.0,9.8,64,0.00,,SKC,0.00,VWS V14.01,2013-04-25 23:11:00,
2013-04-25 19:12:00,72.9,59.8,30.23,SSE,150,0.0,9.8,64,0.00,,SKC,0.00,VWS V14.01,2013-04-25 23:12:00,
2013-04-25 19:13:00,72.8,60.1,30.23,SSE,150,0.0,9.8,64,0.00,,SKC,0.00,VWS V14.01,2013-04-25 23:13:00,
2013-04-25 19:15:00,72.6,59.4,30.23,SSE,150,0.0,9.8,63,0.00,,SKC,0.00,VWS V14.01,2013-04-25 23:15:00,
2013-04-25 19:17:00,72.5,59.2,30.23,SSE,150,0.0,9.8,63,0.00,,SKC,0.00,VWS V14.01,2013-04-25 23:17:00,
2013-04-25 19:18:00,72.2,59.2,30.23,SSE,150,0.0,9.8,64,0.00,,SKC,0.00,VWS V14.01,2013-04-25 23:18:00,
2013-04-25 19:20:00,72.1,59.9,30.24,SSE,150,8.2,11.9,65,0.00,,SKC,0.00,VWS V14.01,2013-04-25 23:20:00,
2013-04-25 19:22:00,72.1,59.6,30.23,SSE,165,0.0,11.9,65,0.00,,SKC,0.00,VWS V14.01,2013-04-25 23:22:00,
2013-04-25 19:23:00,72.1,59.0,30.23,SSE,165,0.0,11.9,64,0.00,,SKC,0.00,VWS V14.01,2013-04-25 23:23:00,
2013-04-25 19:25:00,71.9,59.3,30.23,SSE,165,0.0,11.9,64,0.00,,SKC,0.00,VWS V14.01,2013-04-25 23:25:00,
2013-04-25 19:27:00,71.9,59.7,30.23,SSE,165,0.0,11.9,65,0.00,,SKC,0.00,VWS V14.01,2013-04-25 23:27:00,
2013-04-25 19:28:00,71.9,59.8,30.23,SSE,165,0.0,11.9,66,0.00,,SKC,0.00,VWS V14.01,2013-04-25 23:28:00,
2013-04-25 19:31:00,71.6,58.9,30.23,North,359,0.0,11.9,64,0.00,,SKC,0.00,VWS V14.01,2013-04-25 23:31:00,
2013-04-25 19:32:00,71.5,58.5,30.23,North,359,0.0,11.9,64,0.00,,SKC,0.00,VWS V14.01,2013-04-25 23:32:00,
2013-04-25 19:33:00,71.4,58.4,30.23,North,359,0.0,11.9,64,0.00,,SKC,0.00,VWS V14.01,2013-04-25 23:33:00,
2013-04-25 19:36:00,71.2,58.3,30.23,North,359,0.0,11.9,64,0.00,,SKC,0.00,VWS V14.01,2013-04-25 23:36:00,
2013-04-25 19:37:00,71.1,58.0,30.23,SSE,159,0.0,11.9,63,0.00,,SKC,0.00,VWS V14.01,2013-04-25 23:37:00,
2013-04-25 19:38:00,71.1,58.1,30.23,SSE,159,0.0,11.9,64,0.00,,SKC,0.00,VWS V14.01,2013-04-25 23:38:00,
2013-04-25 19:41:00,70.9,58.0,30.23,SSE,159,0.0,11.9,64,0.00,,SKC,0.00,VWS V14.01,2013-04-25 23:41:00,
2013-04-25 19:42:00,70.8,58.0,30.24,SSE,159,0.0,11.9,64,0.00,,SKC,0.00,VWS V14.01,2013-04-25 23:42:00,
2013-04-25 19:43:00,70.8,57.8,30.24,SSE,159,0.0,11.9,63,0.00,,SKC,0.00,VWS V14.01,2013-04-25 23:43:00,
2013-04-25 19:46:00,70.8,58.3,30.24,SSE,159,0.0,11.9,65,0.00,,SKC,0.00,VWS V14.01,2013-04-25 23:46:00,
2013-04-25 19:47:00,70.8,58.5,30.24,SSE,159,0.0,11.9,65,0.00,,SKC,0.00,VWS V14.01,2013-04-25 23:47:00,
2013-04-25 19:48:00,70.8,58.5,30.24,SSE,159,0.0,11.9,65,0.00,,SKC,0.00,VWS V14.01,2013-04-25 23:48:00,
2013-04-25 19:49:00,70.7,57.5,30.24,SSE,159,0.0,11.9,63,0.00,,SKC,0.00,VWS V14.01,2013-04-25 23:49:00,
2013-04-25 19:51:00,70.5,57.5,30.24,SSE,159,0.0,11.9,63,0.00,,SKC,0.00,VWS V14.01,2013-04-25 23:51:00,
2013-04-25 19:53:00,70.4,57.3,30.24,SSE,159,0.0,11.9,63,0.00,,SKC,0.00,VWS V14.01,2013-04-25 23:53:00,
2013-04-25 19:54:00,70.2,57.1,30.24,SSE,159,0.0,11.9,63,0.00,,SKC,0.00,VWS V14.01,2013-04-25 23:54:00,
2013-04-25 19:56:00,70.1,57.3,30.24,SSE,159,0.0,11.9,64,0.00,,SKC,0.00,VWS V14.01,2013-04-25 23:56:00,
2013-04-25 19:58:00,70.1,57.3,30.24,SSE,159,0.0,11.9,64,0.00,,SKC,0.00,VWS V14.01,2013-04-25 23:58:00,
2013-04-25 19:59:00,70.1,57.4,30.24,SSE,159,0.0,11.9,64,0.00,,SKC,0.00,VWS V14.01,2013-04-25 23:59:00,
2013-04-25 20:02:00,70.0,57.9,30.24,SSE,159,0.0,11.9,66,0.00,,SKC,0.00,VWS V14.01,2013-04-26 00:02:00,
2013-04-25 20:03:00,70.0,58.0,30.24,SSE,159,0.0,11.9,66,0.00,,SKC,0.00,VWS V14.01,2013-04-26 00:03:00,
2013-04-25 20:04:00,69.9,58.1,30.24,SSE,159,0.0,11.9,66,0.00,,SKC,0.00,VWS V14.01,2013-04-26 00:04:00,
2013-04-25 20:07:00,69.8,58.1,30.24,SSE,159,0.0,11.9,66,0.00,,SKC,0.00,VWS V14.01,2013-04-26 00:07:00,
2013-04-25 20:08:00,69.7,57.9,30.24,SSE,159,0.0,11.9,66,0.00,,SKC,0.00,VWS V14.01,2013-04-26 00:08:00,
2013-04-25 20:09:00,69.6,58.2,30.24,SSE,159,0.0,11.9,67,0.00,,SKC,0.00,VWS V14.01,2013-04-26 00:09:00,
2013-04-25 20:10:00,69.6,58.3,30.24,SSE,159,0.0,11.9,67,0.00,,SKC,0.00,VWS V14.01,2013-04-26 00:10:00,
2013-04-25 20:12:00,69.4,58.3,30.24,North,359,0.0,11.9,68,0.00,,SKC,0.00,VWS V14.01,2013-04-26 00:12:00,
2013-04-25 20:13:00,69.5,58.4,30.24,North,359,0.0,11.9,68,0.00,,SKC,0.00,VWS V14.01,2013-04-26 00:13:00,
2013-04-25 20:14:00,69.4,58.3,30.23,North,359,0.0,11.9,68,0.00,,SKC,0.00,VWS V14.01,2013-04-26 00:14:00,
2013-04-25 20:15:00,69.3,58.4,30.23,North,359,0.0,11.9,68,0.00,,SKC,0.00,VWS V14.01,2013-04-26 00:15:00,
2013-04-25 20:17:00,69.2,58.2,30.24,North,359,0.0,11.9,68,0.00,,SKC,0.00,VWS V14.01,2013-04-26 00:17:00,
2013-04-25 20:18:00,69.0,57.9,30.23,North,359,0.0,11.9,68,0.00,,SKC,0.00,VWS V14.01,2013-04-26 00:18:00,
2013-04-25 20:19:00,69.0,57.9,30.23,North,359,0.0,11.9,68,0.00,,SKC,0.00,VWS V14.01,2013-04-26 00:19:00,
2013-04-25 20:20:00,69.0,58.0,30.23,North,359,0.0,11.9,68,0.00,,SKC,0.00,VWS V14.01,2013-04-26 00:20:00,
2013-04-25 20:22:00,68.8,57.7,30.24,North,359,0.0,11.9,68,0.00,,SKC,0.00,VWS V14.01,2013-04-26 00:22:00,
2013-04-25 20:23:00,68.8,57.1,30.24,North,359,0.0,11.9,66,0.00,,SKC,0.00,VWS V14.01,2013-04-26 00:23:00,
2013-04-25 20:24:00,68.8,57.1,30.24,North,359,0.0,11.9,66,0.00,,SKC,0.00,VWS V14.01,2013-04-26 00:24:00,
2013-04-25 20:25:00,68.6,56.5,30.24,North,359,0.0,11.9,65,0.00,,SKC,0.00,VWS V14.01,2013-04-26 00:25:00,
2013-04-25 20:27:00,68.4,56.2,30.24,North,359,0.0,11.9,65,0.00,,SKC,0.00,VWS V14.01,2013-04-26 00:27:00,
2013-04-25 20:28:00,68.4,56.2,30.24,North,359,0.0,11.9,65,0.00,,SKC,0.00,VWS V14.01,2013-04-26 00:28:00,
2013-04-25 20:29:00,68.4,56.2,30.24,North,359,0.0,11.9,65,0.00,,SKC,0.00,VWS V14.01,2013-04-26 00:29:00,
2013-04-25 20:30:00,68.5,56.2,30.23,North,359,0.0,11.9,64,0.00,,SKC,0.00,VWS V14.01,2013-04-26 00:30:00,
2013-04-25 20:32:00,68.4,55.9,30.24,North,359,0.0,11.9,64,0.00,,SKC,0.00,VWS V14.01,2013-04-26 00:32:00,
2013-04-25 20:34:00,68.4,55.8,30.24,North,359,0.0,11.9,64,0.00,,SKC,0.00,VWS V14.01,2013-04-26 00:34:00,
2013-04-25 20:35:00,68.3,55.8,30.23,North,359,0.0,11.9,64,0.00,,SKC,0.00,VWS V14.01,2013-04-26 00:35:00,
2013-04-25 20:37:00,68.3,55.6,30.24,North,359,0.0,11.9,64,0.00,,SKC,0.00,VWS V14.01,2013-04-26 00:37:00,
2013-04-25 20:39:00,68.2,55.7,30.24,North,359,0.0,11.9,64,0.00,,SKC,0.00,VWS V14.01,2013-04-26 00:39:00,
2013-04-25 20:40:00,68.2,55.6,30.24,North,359,0.0,11.9,64,0.00,,SKC,0.00,VWS V14.01,2013-04-26 00:40:00,
2013-04-25 20:42:00,68.2,55.9,30.24,North,359,0.0,11.9,65,0.00,,SKC,0.00,VWS V14.01,2013-04-26 00:42:00,
2013-04-25 20:44:00,68.1,56.0,30.24,North,359,0.0,11.9,65,0.00,,SKC,0.00,VWS V14.01,2013-04-26 00:44:00,
2013-04-25 20:45:00,68.0,55.9,30.24,North,359,0.0,11.9,65,0.00,,SKC,0.00,VWS V14.01,2013-04-26 00:45:00,
2013-04-25 20:47:00,67.8,55.9,30.24,North,359,0.0,11.9,66,0.00,,SKC,0.00,VWS V14.01,2013-04-26 00:47:00,
2013-04-25 20:49:00,67.8,56.0,30.25,North,359,0.0,11.9,66,0.00,,SKC,0.00,VWS V14.01,2013-04-26 00:49:00,
2013-04-25 20:50:00,67.8,56.1,30.25,North,359,0.0,11.9,66,0.00,,SKC,0.00,VWS V14.01,2013-04-26 00:50:00,
2013-04-25 20:52:00,67.7,55.2,30.25,North,359,0.0,11.9,64,0.00,,SKC,0.00,VWS V14.01,2013-04-26 00:52:00,
2013-04-25 20:54:00,67.4,55.2,30.25,North,359,0.0,11.9,65,0.00,,SKC,0.00,VWS V14.01,2013-04-26 00:54:00,
2013-04-25 20:55:00,67.4,54.9,30.25,North,359,0.0,11.9,64,0.00,,SKC,0.00,VWS V14.01,2013-04-26 00:55:00,
2013-04-25 20:57:00,67.3,54.4,30.25,North,359,0.0,11.9,63,0.00,,SKC,0.00,VWS V14.01,2013-04-26 00:57:00,
2013-04-25 20:59:00,67.1,54.2,30.25,North,359,0.0,11.9,63,0.00,,SKC,0.00,VWS V14.01,2013-04-26 00:59:00,
2013-04-25 21:00:00,67.1,54.1,30.25,North,359,0.0,11.9,63,0.00,,SKC,0.00,VWS V14.01,2013-04-26 01:00:00,
2013-04-25 21:01:00,67.1,54.2,30.25,North,359,0.0,11.9,63,0.00,,SKC,0.00,VWS V14.01,2013-04-26 01:01:00,
2013-04-25 21:02:00,67.0,53.3,30.25,North,359,0.0,11.9,61,0.00,,SKC,0.00,VWS V14.01,2013-04-26 01:02:00,
2013-04-25 21:04:00,66.9,53.8,30.25,North,359,0.0,11.9,63,0.00,,SKC,0.00,VWS V14.01,2013-04-26 01:04:00,
2013-04-25 21:05:00,66.9,54.0,30.25,North,359,0.0,11.9,63,0.00,,SKC,0.00,VWS V14.01,2013-04-26 01:05:00,
2013-04-25 21:06:00,66.9,54.1,30.25,North,359,0.0,11.9,63,0.00,,SKC,0.00,VWS V14.01,2013-04-26 01:06:00,
2013-04-25 21:07:00,66.9,54.1,30.25,North,359,0.0,11.9,63,0.00,,SKC,0.00,VWS V14.01,2013-04-26 01:07:00,
2013-04-25 21:09:00,66.8,53.6,30.25,North,359,0.0,11.9,62,0.00,,SKC,0.00,VWS V14.01,2013-04-26 01:09:00,
2013-04-25 21:10:00,66.7,53.3,30.25,North,359,0.0,11.9,62,0.00,,SKC,0.00,VWS V14.01,2013-04-26 01:10:00,
2013-04-25 21:11:00,66.7,53.3,30.25,North,359,0.0,11.9,62,0.00,,SKC,0.00,VWS V14.01,2013-04-26 01:11:00,
2013-04-25 21:13:00,66.7,53.3,30.25,North,359,0.0,11.9,62,0.00,,SKC,0.00,VWS V14.01,2013-04-26 01:13:00,
2013-04-25 21:14:00,66.5,53.1,30.25,North,359,0.0,11.9,62,0.00,,SKC,0.00,VWS V14.01,2013-04-26 01:14:00,
2013-04-25 21:15:00,66.4,53.1,30.25,North,359,0.0,11.9,62,0.00,,SKC,0.00,VWS V14.01,2013-04-26 01:15:00,
2013-04-25 21:16:00,66.4,52.7,30.25,North,359,0.0,11.9,61,0.00,,SKC,0.00,VWS V14.01,2013-04-26 01:16:00,
2013-04-25 21:18:00,66.4,53.2,30.25,North,359,0.0,11.9,62,0.00,,SKC,0.00,VWS V14.01,2013-04-26 01:18:00,
2013-04-25 21:19:00,66.3,53.0,30.25,North,359,0.0,11.9,62,0.00,,SKC,0.00,VWS V14.01,2013-04-26 01:19:00,
2013-04-25 21:20:00,66.2,52.5,30.25,North,359,0.0,11.9,61,0.00,,SKC,0.00,VWS V14.01,2013-04-26 01:20:00,
2013-04-25 21:21:00,66.2,51.8,30.26,North,359,0.0,11.9,60,0.00,,SKC,0.00,VWS V14.01,2013-04-26 01:21:00,
2013-04-25 21:23:00,66.2,52.2,30.26,North,359,0.0,11.9,60,0.00,,SKC,0.00,VWS V14.01,2013-04-26 01:23:00,
2013-04-25 21:24:00,66.1,52.5,30.25,North,359,0.0,11.9,61,0.00,,SKC,0.00,VWS V14.01,2013-04-26 01:24:00,
2013-04-25 21:25:00,66.1,52.2,30.25,North,359,0.0,11.9,61,0.00,,SKC,0.00,VWS V14.01,2013-04-26 01:25:00,
2013-04-25 21:26:00,66.0,52.0,30.25,North,359,0.0,11.9,61,0.00,,SKC,0.00,VWS V14.01,2013-04-26 01:26:00,
2013-04-25 21:28:00,66.0,52.1,30.25,North,359,0.0,11.9,61,0.00,,SKC,0.00,VWS V14.01,2013-04-26 01:28:00,
2013-04-25 21:30:00,65.9,52.1,30.26,North,359,0.0,11.9,61,0.00,,SKC,0.00,VWS V14.01,2013-04-26 01:30:00,
2013-04-25 21:31:00,65.9,51.8,30.25,North,359,0.0,11.9,60,0.00,,SKC,0.00,VWS V14.01,2013-04-26 01:31:00,
2013-04-25 21:33:00,65.8,52.1,30.26,North,359,0.0,11.9,61,0.00,,SKC,0.00,VWS V14.01,2013-04-26 01:33:00,
2013-04-25 21:35:00,65.8,51.6,30.26,North,359,0.0,11.9,60,0.00,,SKC,0.00,VWS V14.01,2013-04-26 01:35:00,
2013-04-25 21:36:00,65.8,51.8,30.26,North,359,0.0,11.9,61,0.00,,SKC,0.00,VWS V14.01,2013-04-26 01:36:00,
2013-04-25 21:37:00,65.8,52.0,30.26,North,359,0.0,11.9,61,0.00,,SKC,0.00,VWS V14.01,2013-04-26 01:37:00,
2013-04-25 21:38:00,65.7,51.7,30.26,North,359,0.0,11.9,60,0.00,,SKC,0.00,VWS V14.01,2013-04-26 01:38:00,
2013-04-25 21:40:00,65.7,51.6,30.26,North,359,0.0,11.9,60,0.00,,SKC,0.00,VWS V14.01,2013-04-26 01:40:00,
2013-04-25 21:41:00,65.6,51.7,30.26,North,359,0.0,11.9,61,0.00,,SKC,0.00,VWS V14.01,2013-04-26 01:41:00,
2013-04-25 21:42:00,65.6,51.8,30.26,North,359,0.0,11.9,61,0.00,,SKC,0.00,VWS V14.01,2013-04-26 01:42:00,
2013-04-25 21:43:00,65.5,51.5,30.26,North,359,0.0,11.9,60,0.00,,SKC,0.00,VWS V14.01,2013-04-26 01:43:00,
2013-04-25 21:45:00,65.3,51.6,30.26,North,359,0.0,11.9,61,0.00,,SKC,0.00,VWS V14.01,2013-04-26 01:45:00,
2013-04-25 21:46:00,65.3,51.8,30.26,North,359,0.0,11.9,62,0.00,,SKC,0.00,VWS V14.01,2013-04-26 01:46:00,
2013-04-25 21:47:00,65.4,52.0,30.26,North,359,0.0,11.9,62,0.00,,SKC,0.00,VWS V14.01,2013-04-26 01:47:00,
2013-04-25 21:48:00,65.3,51.5,30.26,North,359,0.0,11.9,61,0.00,,SKC,0.00,VWS V14.01,2013-04-26 01:48:00,
2013-04-25 21:50:00,65.2,51.6,30.26,North,359,0.0,11.9,61,0.00,,SKC,0.00,VWS V14.01,2013-04-26 01:50:00,
2013-04-25 21:51:00,65.1,51.4,30.26,North,359,0.0,11.9,61,0.00,,SKC,0.00,VWS V14.01,2013-04-26 01:51:00,
2013-04-25 21:52:00,65.1,51.5,30.26,North,359,0.0,11.9,61,0.00,,SKC,0.00,VWS V14.01,2013-04-26 01:52:00,
2013-04-25 21:53:00,65.1,51.0,30.26,North,359,0.0,11.9,60,0.00,,SKC,0.00,VWS V14.01,2013-04-26 01:53:00,
2013-04-25 21:55:00,65.0,51.0,30.26,North,359,0.0,11.9,60,0.00,,SKC,0.00,VWS V14.01,2013-04-26 01:55:00,
2013-04-25 21:56:00,65.0,50.9,30.27,North,359,0.0,11.9,60,0.00,,SKC,0.00,VWS V14.01,2013-04-26 01:56:00,
2013-04-25 21:57:00,65.0,50.7,30.27,North,359,0.0,11.9,60,0.00,,SKC,0.00,VWS V14.01,2013-04-26 01:57:00,
2013-04-25 21:59:00,64.9,50.4,30.27,North,359,0.0,11.9,59,0.00,,SKC,0.00,VWS V14.01,2013-04-26 01:59:00,
2013-04-25 22:00:00,65.0,51.1,30.27,North,359,0.0,11.9,61,0.00,,SKC,0.00,VWS V14.01,2013-04-26 02:00:00,
2013-04-25 22:01:00,64.9,51.1,30.27,North,359,0.0,11.9,61,0.00,,SKC,0.00,VWS V14.01,2013-04-26 02:01:00,
2013-04-25 22:02:00,64.9,51.2,30.27,North,359,0.0,11.9,61,0.00,,SKC,0.00,VWS V14.01,2013-04-26 02:02:00,
2013-04-25 22:04:00,64.9,51.4,30.26,North,359,0.0,11.9,62,0.00,,SKC,0.00,VWS V14.01,2013-04-26 02:04:00,
2013-04-25 22:06:00,64.8,51.5,30.27,North,359,0.0,11.9,62,0.00,,SKC,0.00,VWS V14.01,2013-04-26 02:06:00,
2013-04-25 22:07:00,64.8,51.3,30.27,North,359,0.0,11.9,62,0.00,,SKC,0.00,VWS V14.01,2013-04-26 02:07:00,
2013-04-25 22:09:00,64.6,51.5,30.27,North,359,0.0,11.9,62,0.00,,SKC,0.00,VWS V14.01,2013-04-26 02:09:00,
2013-04-25 22:11:00,64.5,51.6,30.27,North,359,0.0,11.9,63,0.00,,SKC,0.00,VWS V14.01,2013-04-26 02:11:00,
2013-04-25 22:12:00,64.5,51.6,30.27,North,359,0.0,11.9,63,0.00,,SKC,0.00,VWS V14.01,2013-04-26 02:12:00,
2013-04-25 22:14:00,64.4,51.2,30.27,North,359,0.0,11.9,62,0.00,,SKC,0.00,VWS V14.01,2013-04-26 02:14:00,
2013-04-25 22:16:00,64.2,51.4,30.27,North,359,0.0,11.9,63,0.00,,SKC,0.00,VWS V14.01,2013-04-26 02:16:00,
2013-04-25 22:17:00,64.3,51.5,30.27,North,359,0.0,11.9,63,0.00,,SKC,0.00,VWS V14.01,2013-04-26 02:17:00,
2013-04-25 22:19:00,64.2,51.6,30.27,North,359,0.0,11.9,64,0.00,,SKC,0.00,VWS V14.01,2013-04-26 02:19:00,
2013-04-25 22:22:00,64.1,51.5,30.27,North,359,0.0,11.9,64,0.00,,SKC,0.00,VWS V14.01,2013-04-26 02:22:00,
2013-04-25 22:24:00,64.0,51.6,30.27,North,359,0.0,11.9,64,0.00,,SKC,0.00,VWS V14.01,2013-04-26 02:24:00,
2013-04-25 22:27:00,64.0,51.7,30.27,North,359,0.0,11.9,64,0.00,,SKC,0.00,VWS V14.01,2013-04-26 02:27:00,
2013-04-25 22:29:00,63.9,51.7,30.27,North,359,0.0,11.9,64,0.00,,SKC,0.00,VWS V14.01,2013-04-26 02:29:00,
2013-04-25 22:32:00,63.9,51.7,30.28,North,359,0.0,11.9,64,0.00,,SKC,0.00,VWS V14.01,2013-04-26 02:32:00,
2013-04-25 22:35:00,63.8,51.7,30.28,North,359,0.0,11.9,65,0.00,,SKC,0.00,VWS V14.01,2013-04-26 02:35:00,
2013-04-25 22:37:00,63.7,51.8,30.28,North,359,0.0,11.9,65,0.00,,SKC,0.00,VWS V14.01,2013-04-26 02:37:00,
2013-04-25 22:38:00,63.7,51.8,30.28,North,359,0.0,11.9,65,0.00,,SKC,0.00,VWS V14.01,2013-04-26 02:38:00,
2013-04-25 22:40:00,63.7,52.0,30.28,North,359,0.0,11.9,66,0.00,,SKC,0.00,VWS V14.01,2013-04-26 02:40:00,
2013-04-25 22:42:00,63.7,52.0,30.28,North,359,0.0,11.9,66,0.00,,SKC,0.00,VWS V14.01,2013-04-26 02:42:00,
2013-04-25 22:43:00,63.6,52.0,30.28,North,359,0.0,11.9,66,0.00,,SKC,0.00,VWS V14.01,2013-04-26 02:43:00,
2013-04-25 22:45:00,63.6,52.1,30.28,North,359,0.0,11.9,66,0.00,,SKC,0.00,VWS V14.01,2013-04-26 02:45:00,
2013-04-25 22:47:00,63.4,51.9,30.28,North,359,0.0,11.9,66,0.00,,SKC,0.00,VWS V14.01,2013-04-26 02:47:00,
2013-04-25 22:48:00,63.5,52.0,30.28,North,359,0.0,11.9,66,0.00,,SKC,0.00,VWS V14.01,2013-04-26 02:48:00,
2013-04-25 22:49:00,63.4,52.1,30.28,North,359,0.0,11.9,66,0.00,,SKC,0.00,VWS V14.01,2013-04-26 02:49:00,
2013-04-25 22:51:00,63.3,52.2,30.28,North,359,0.0,11.9,67,0.00,,SKC,0.00,VWS V14.01,2013-04-26 02:51:00,
2013-04-25 22:52:00,63.3,52.3,30.28,North,359,0.0,11.9,67,0.00,,SKC,0.00,VWS V14.01,2013-04-26 02:52:00,
2013-04-25 22:53:00,63.2,52.2,30.28,North,359,0.0,11.9,67,0.00,,SKC,0.00,VWS V14.01,2013-04-26 02:53:00,
2013-04-25 22:54:00,63.3,52.4,30.28,North,359,0.0,11.9,68,0.00,,SKC,0.00,VWS V14.01,2013-04-26 02:54:00,
2013-04-25 22:55:00,63.2,52.4,30.28,North,359,0.0,11.9,68,0.00,,SKC,0.00,VWS V14.01,2013-04-26 02:55:00,
2013-04-25 22:57:00,63.2,52.4,30.28,North,359,0.0,11.9,68,0.00,,SKC,0.00,VWS V14.01,2013-04-26 02:57:00,
2013-04-25 22:58:00,63.1,52.3,30.28,North,359,0.0,11.9,68,0.00,,SKC,0.00,VWS V14.01,2013-04-26 02:58:00,
2013-04-25 22:59:00,63.2,52.5,30.28,North,359,0.0,11.9,68,0.00,,SKC,0.00,VWS V14.01,2013-04-26 02:59:00,
2013-04-25 23:01:00,63.1,52.6,30.28,North,359,0.0,11.9,69,0.00,,SKC,0.00,VWS V14.01,2013-04-26 03:01:00,
2013-04-25 23:02:00,63.0,52.6,30.28,North,359,0.0,11.9,69,0.00,,SKC,0.00,VWS V14.01,2013-04-26 03:02:00,
2013-04-25 23:03:00,63.0,52.6,30.29,North,359,0.0,11.9,69,0.00,,SKC,0.00,VWS V14.01,2013-04-26 03:03:00,
2013-04-25 23:04:00,63.0,52.6,30.29,North,359,0.0,11.9,69,0.00,,SKC,0.00,VWS V14.01,2013-04-26 03:04:00,
2013-04-25 23:05:00,61.4,53.3,30.28,North,359,0.0,11.9,75,0.00,,SKC,0.00,VWS V14.01,2013-04-26 03:05:00,
2013-04-25 23:06:00,63.0,52.6,30.29,North,359,0.0,11.9,69,0.00,,SKC,0.00,VWS V14.01,2013-04-26 03:06:00,
2013-04-25 23:07:00,62.8,52.5,30.29,North,359,0.0,11.9,69,0.00,,SKC,0.00,VWS V14.01,2013-04-26 03:07:00,
2013-04-25 23:08:00,62.8,52.5,30.29,North,359,0.0,11.9,69,0.00,,SKC,0.00,VWS V14.01,2013-04-26 03:08:00,
2013-04-25 23:09:00,62.8,52.5,30.29,North,359,0.0,11.9,69,0.00,,SKC,0.00,VWS V14.01,2013-04-26 03:09:00,
2013-04-25 23:11:00,62.8,52.7,30.28,North,359,0.0,11.9,69,0.00,,SKC,0.00,VWS V14.01,2013-04-26 03:11:00,
2013-04-25 23:12:00,62.7,52.7,30.28,North,359,0.0,11.9,70,0.00,,SKC,0.00,VWS V14.01,2013-04-26 03:12:00,
2013-04-25 23:13:00,62.7,52.7,30.28,North,359,0.0,11.9,70,0.00,,SKC,0.00,VWS V14.01,2013-04-26 03:13:00,
2013-04-25 23:14:00,62.7,52.8,30.29,North,359,0.0,11.9,70,0.00,,SKC,0.00,VWS V14.01,2013-04-26 03:14:00,
2013-04-25 23:16:00,62.7,52.9,30.28,North,359,0.0,11.9,70,0.00,,SKC,0.00,VWS V14.01,2013-04-26 03:16:00,
2013-04-25 23:17:00,62.6,52.9,30.28,North,359,0.0,11.9,71,0.00,,SKC,0.00,VWS V14.01,2013-04-26 03:17:00,
2013-04-25 23:18:00,62.6,53.0,30.28,North,359,0.0,11.9,71,0.00,,SKC,0.00,VWS V14.01,2013-04-26 03:18:00,
2013-04-25 23:19:00,62.6,53.0,30.28,North,359,0.0,11.9,71,0.00,,SKC,0.00,VWS V14.01,2013-04-26 03:19:00,
2013-04-25 23:21:00,62.5,53.1,30.28,North,359,0.0,11.9,71,0.00,,SKC,0.00,VWS V14.01,2013-04-26 03:21:00,
2013-04-25 23:22:00,62.4,53.0,30.28,North,359,0.0,11.9,71,0.00,,SKC,0.00,VWS V14.01,2013-04-26 03:22:00,
2013-04-25 23:23:00,62.4,53.0,30.28,North,359,0.0,11.9,72,0.00,,SKC,0.00,VWS V14.01,2013-04-26 03:23:00,
2013-04-25 23:24:00,62.3,53.1,30.28,North,359,0.0,11.9,72,0.00,,SKC,0.00,VWS V14.01,2013-04-26 03:24:00,
2013-04-25 23:26:00,62.3,53.2,30.28,North,359,0.0,11.9,72,0.00,,SKC,0.00,VWS V14.01,2013-04-26 03:26:00,
2013-04-25 23:27:00,62.2,53.2,30.28,North,359,0.0,11.9,72,0.00,,SKC,0.00,VWS V14.01,2013-04-26 03:27:00,
2013-04-25 23:28:00,62.2,53.2,30.28,North,359,0.0,11.9,72,0.00,,SKC,0.00,VWS V14.01,2013-04-26 03:28:00,
2013-04-25 23:29:00,62.2,53.2,30.28,North,359,0.0,11.9,72,0.00,,SKC,0.00,VWS V14.01,2013-04-26 03:29:00,
2013-04-25 23:31:00,62.1,53.3,30.28,North,359,0.0,11.9,73,0.00,,SKC,0.00,VWS V14.01,2013-04-26 03:31:00,
2013-04-25 23:32:00,62.0,53.2,30.28,North,359,0.0,11.9,73,0.00,,SKC,0.00,VWS V14.01,2013-04-26 03:32:00,
2013-04-25 23:33:00,62.0,53.3,30.28,North,359,0.0,11.9,73,0.00,,SKC,0.00,VWS V14.01,2013-04-26 03:33:00,
2013-04-25 23:34:00,62.0,53.3,30.28,North,359,0.0,11.9,73,0.00,,SKC,0.00,VWS V14.01,2013-04-26 03:34:00,
2013-04-25 23:37:00,61.9,53.4,30.28,North,359,0.0,11.9,74,0.00,,SKC,0.00,VWS V14.01,2013-04-26 03:37:00,
2013-04-25 23:39:00,61.8,53.4,30.28,North,359,0.0,11.9,74,0.00,,SKC,0.00,VWS V14.01,2013-04-26 03:39:00,
2013-04-25 23:42:00,61.7,53.3,30.28,North,359,0.0,11.9,74,0.00,,SKC,0.00,VWS V14.01,2013-04-26 03:42:00,
2013-04-25 23:44:00,61.7,53.2,30.28,North,359,0.0,11.9,74,0.00,,SKC,0.00,VWS V14.01,2013-04-26 03:44:00,
2013-04-25 23:47:00,61.7,53.4,30.28,North,359,0.0,11.9,74,0.00,,SKC,0.00,VWS V14.01,2013-04-26 03:47:00,
2013-04-25 23:48:00,61.6,53.2,30.28,North,359,0.0,11.9,74,0.00,,SKC,0.00,VWS V14.01,2013-04-26 03:48:00,
2013-04-25 23:49:00,61.6,53.3,30.28,North,359,0.0,11.9,74,0.00,,SKC,0.00,VWS V14.01,2013-04-26 03:49:00,
2013-04-25 23:52:00,61.5,53.3,30.28,North,359,0.0,11.9,74,0.00,,SKC,0.00,VWS V14.01,2013-04-26 03:52:00,
2013-04-25 23:53:00,61.6,53.3,30.28,North,359,0.0,11.9,74,0.00,,SKC,0.00,VWS V14.01,2013-04-26 03:53:00,
2013-04-25 23:54:00,61.6,53.3,30.28,North,359,0.0,11.9,74,0.00,,SKC,0.00,VWS V14.01,2013-04-26 03:54:00,
2013-04-25 23:57:00,61.5,53.2,30.28,North,359,0.0,11.9,74,0.00,,SKC,0.00,VWS V14.01,2013-04-26 03:57:00,
2013-04-25 23:58:00,61.5,53.3,30.28,North,359,0.0,11.9,74,0.00,,SKC,0.00,VWS V14.01,2013-04-26 03:58:00,
2013-04-25 23:59:00,61.4,53.2,30.28,North,359,0.0,11.9,74,0.00,,SKC,0.00,VWS V14.01,2013-04-26 03:59:00,